Observation data for Tahoka on 05/26/2019      Previous  Date  Next       Current Mesonet Observations  Soil Data  Daily Summary Page  Observations in Plain Language
KTAS 260500Z 17012KT 21/18 A2995 RMK A01 T02140177  RH  079%=      5-min Rain = 0
KTAS 260501Z 17013KT 22/18 A2995 RMK A01 T02150177  RH  079%=      5-min Rain = 0
KTAS 260502Z 16012KT 22/18 A2995 RMK A01 T02160178  RH  079%=      5-min Rain = 0
KTAS 260503Z 17012KT 22/18 A2995 RMK A01 T02160178  RH  079%=      5-min Rain = 0
KTAS 260504Z 17012KT 22/18 A2996 RMK A01 T02160177  RH  079%=      5-min Rain = 0
KTAS 260505Z 17012KT 22/18 A2996 RMK A01 T02160177  RH  079%=      5-min Rain = 0
KTAS 260506Z 16012KT 22/18 A2995 RMK A01 T02160177  RH  079%=      5-min Rain = 0
KTAS 260507Z 16011KT 22/18 A2995 RMK A01 T02150178  RH  079%=      5-min Rain = 0
KTAS 260508Z 17011KT 21/18 A2995 RMK A01 T02140177  RH  080%=      5-min Rain = 0
KTAS 260509Z 16012KT 21/18 A2995 RMK A01 T02140177  RH  079%=      5-min Rain = 0
KTAS 260510Z 17011KT 22/18 A2995 RMK A01 T02150177  RH  079%=      5-min Rain = 0
KTAS 260511Z 16011KT 21/18 A2996 RMK A01 T02140177  RH  079%=      5-min Rain = 0
KTAS 260512Z 17011KT 21/18 A2996 RMK A01 T02140177  RH  080%=      5-min Rain = 0
KTAS 260513Z 17012KT 21/18 A2996 RMK A01 T02140177  RH  080%=      5-min Rain = 0
KTAS 260514Z 17013KT 21/18 A2995 RMK A01 T02140177  RH  080%=      5-min Rain = 0
KTAS 260515Z 17012KT 21/18 A2995 RMK A01 T02140177  RH  079%=      5-min Rain = 0
KTAS 260516Z 17011KT 21/18 A2995 RMK A01 T02130177  RH  080%=      5-min Rain = 0
KTAS 260517Z 16011KT 21/18 A2995 RMK A01 T02130177  RH  080%=      5-min Rain = 0
KTAS 260518Z 17010KT 21/18 A2995 RMK A01 T02130177  RH  080%=      5-min Rain = 0
KTAS 260519Z 17011KT 21/18 A2995 RMK A01 T02120177  RH  080%=      5-min Rain = 0
KTAS 260520Z 17012KT 21/18 A2995 RMK A01 T02120177  RH  081%=      5-min Rain = 0
KTAS 260521Z 17013KT 21/18 A2995 RMK A01 T02120177  RH  081%=      5-min Rain = 0
KTAS 260522Z 17013KT 21/18 A2995 RMK A01 T02130177  RH  080%=      5-min Rain = 0
KTAS 260523Z 16011KT 21/18 A2995 RMK A01 T02130177  RH  080%=      5-min Rain = 0
KTAS 260524Z 17012G17KT 21/18 A2995 RMK A01 T02130177  RH  080%=      5-min Rain = 0
KTAS 260525Z 16012KT 21/18 A2995 RMK A01 T02130177  RH  080%=      5-min Rain = 0
KTAS 260526Z 17012KT 21/18 A2995 RMK A01 T02140177  RH  080%=      5-min Rain = 0
KTAS 260527Z 17013KT 21/18 A2995 RMK A01 T02130177  RH  080%=      5-min Rain = 0
KTAS 260528Z 17011KT 21/18 A2995 RMK A01 T02140177  RH  080%=      5-min Rain = 0
KTAS 260529Z 16012KT 21/18 A2995 RMK A01 T02140178  RH  080%=      5-min Rain = 0
KTAS 260530Z 17012KT 21/18 A2995 RMK A01 T02130177  RH  080%=      5-min Rain = 0
KTAS 260531Z 17012KT 21/18 A2995 RMK A01 T02130177  RH  080%=      5-min Rain = 0
KTAS 260532Z 17011KT 21/18 A2995 RMK A01 T02130177  RH  080%=      5-min Rain = 0
KTAS 260533Z 16012KT 21/18 A2995 RMK A01 T02130178  RH  080%=      5-min Rain = 0
KTAS 260534Z 17012KT 21/18 A2995 RMK A01 T02130177  RH  080%=      5-min Rain = 0
KTAS 260535Z 16012KT 21/18 A2995 RMK A01 T02130177  RH  080%=      5-min Rain = 0
KTAS 260536Z 16011KT 21/18 A2995 RMK A01 T02130177  RH  080%=      5-min Rain = 0
KTAS 260537Z 17012KT 21/18 A2995 RMK A01 T02120177  RH  080%=      5-min Rain = 0
KTAS 260538Z 16012KT 21/18 A2995 RMK A01 T02120177  RH  081%=      5-min Rain = 0
KTAS 260539Z 17014KT 21/18 A2995 RMK A01 T02120177  RH  080%=      5-min Rain = 0
KTAS 260540Z 16013KT 21/18 A2995 RMK A01 T02130177  RH  080%=      5-min Rain = 0
KTAS 260541Z 17012KT 21/18 A2995 RMK A01 T02130177  RH  080%=      5-min Rain = 0
KTAS 260542Z 16013KT 21/18 A2995 RMK A01 T02130177  RH  080%=      5-min Rain = 0
KTAS 260543Z 17013KT 21/18 A2995 RMK A01 T02130178  RH  080%=      5-min Rain = 0
KTAS 260544Z 17012KT 21/18 A2995 RMK A01 T02130177  RH  080%=      5-min Rain = 0
KTAS 260545Z 17012KT 21/18 A2995 RMK A01 T02120177  RH  080%=      5-min Rain = 0
KTAS 260546Z 16012KT 21/18 A2995 RMK A01 T02120177  RH  080%=      5-min Rain = 0
KTAS 260547Z 17011KT 21/18 A2995 RMK A01 T02120177  RH  081%=      5-min Rain = 0
KTAS 260548Z 17012KT 21/18 A2995 RMK A01 T02110177  RH  081%=      5-min Rain = 0
KTAS 260549Z 17012KT 21/18 A2995 RMK A01 T02110177  RH  081%=      5-min Rain = 0
KTAS 260550Z 16012KT 21/18 A2995 RMK A01 T02100177  RH  081%=      5-min Rain = 0
KTAS 260551Z 16012KT 21/18 A2995 RMK A01 T02100177  RH  081%=      5-min Rain = 0
KTAS 260552Z 17012KT 21/18 A2995 RMK A01 T02100177  RH  081%=      5-min Rain = 0
KTAS 260553Z 17012KT 21/18 A2995 RMK A01 T02110177  RH  081%=      5-min Rain = 0
KTAS 260554Z 16012KT 21/18 A2995 RMK A01 T02110177  RH  081%=      5-min Rain = 0
KTAS 260555Z 16013KT 21/18 A2995 RMK A01 T02110177  RH  081%=      5-min Rain = 0
KTAS 260556Z 17012KT 21/18 A2995 RMK A01 T02110177  RH  081%=      5-min Rain = 0
KTAS 260557Z 17012KT 21/18 A2995 RMK A01 T02100177  RH  081%=      5-min Rain = 0
KTAS 260558Z 17013KT 21/18 A2995 RMK A01 T02100177  RH  081%=      5-min Rain = 0
KTAS 260559Z 17013KT 21/18 A2995 RMK A01 T02100177  RH  081%=      5-min Rain = 0
KTAS 260600Z 16012KT 21/18 A2995 RMK A01 T02110177  RH  081%=      5-min Rain = 0
KTAS 260601Z 16014KT 21/18 A2995 RMK A01 T02100177  RH  081%=      5-min Rain = 0
KTAS 260602Z 17012KT 21/18 A2995 RMK A01 T02100177  RH  081%=      5-min Rain = 0
KTAS 260603Z 17013KT 21/18 A2995 RMK A01 T02100177  RH  081%=      5-min Rain = 0
KTAS 260604Z 17011G18KT 21/18 A2995 RMK A01 T02100177  RH  081%=      5-min Rain = 0
KTAS 260605Z 17012KT 21/18 A2995 RMK A01 T02110177  RH  081%=      5-min Rain = 0
KTAS 260606Z 17012KT 21/18 A2995 RMK A01 T02110177  RH  081%=      5-min Rain = 0
KTAS 260607Z 17012KT 21/18 A2995 RMK A01 T02110177  RH  081%=      5-min Rain = 0
KTAS 260608Z 17012KT 21/18 A2995 RMK A01 T02110177  RH  081%=      5-min Rain = 0
KTAS 260609Z 17011KT 21/18 A2995 RMK A01 T02110177  RH  081%=      5-min Rain = 0
KTAS 260610Z 17011KT 21/18 A2995 RMK A01 T02100177  RH  081%=      5-min Rain = 0
KTAS 260611Z 17012KT 21/18 A2995 RMK A01 T02100178  RH  082%=      5-min Rain = 0
KTAS 260612Z 17013KT 21/18 A2996 RMK A01 T02100177  RH  081%=      5-min Rain = 0
KTAS 260613Z 17011KT 21/18 A2996 RMK A01 T02110177  RH  081%=      5-min Rain = 0
KTAS 260614Z 16012KT 21/18 A2996 RMK A01 T02100177  RH  081%=      5-min Rain = 0
KTAS 260615Z 17011KT 21/18 A2996 RMK A01 T02100177  RH  081%=      5-min Rain = 0
KTAS 260616Z 17012KT 21/18 A2996 RMK A01 T02100177  RH  081%=      5-min Rain = 0
KTAS 260617Z 17011KT 21/18 A2996 RMK A01 T02100177  RH  082%=      5-min Rain = 0
KTAS 260618Z 17013KT 21/18 A2995 RMK A01 T02100177  RH  081%=      5-min Rain = 0
KTAS 260619Z 17012KT 21/18 A2995 RMK A01 T02100177  RH  082%=      5-min Rain = 0
KTAS 260620Z 16012KT 21/18 A2995 RMK A01 T02090177  RH  082%=      5-min Rain = 0
KTAS 260621Z 16011KT 21/18 A2995 RMK A01 T02090177  RH  082%=      5-min Rain = 0
KTAS 260622Z 16011KT 21/18 A2995 RMK A01 T02080177  RH  082%=      5-min Rain = 0
KTAS 260623Z 17012KT 21/18 A2995 RMK A01 T02080177  RH  082%=      5-min Rain = 0
KTAS 260624Z 17011KT 21/18 A2995 RMK A01 T02080177  RH  082%=      5-min Rain = 0
KTAS 260625Z 17012KT 21/18 A2995 RMK A01 T02080177  RH  082%=      5-min Rain = 0
KTAS 260626Z 17013KT 21/18 A2995 RMK A01 T02090177  RH  082%=      5-min Rain = 0
KTAS 260627Z 17012KT 21/18 A2995 RMK A01 T02090177  RH  082%=      5-min Rain = 0
KTAS 260628Z 17011KT 21/18 A2995 RMK A01 T02090177  RH  082%=      5-min Rain = 0
KTAS 260629Z 16011KT 21/18 A2995 RMK A01 T02090177  RH  082%=      5-min Rain = 0
KTAS 260630Z 17013KT 21/18 A2995 RMK A01 T02080177  RH  082%=      5-min Rain = 0
KTAS 260631Z 17012KT 21/18 A2995 RMK A01 T02080177  RH  082%=      5-min Rain = 0
KTAS 260632Z 17011KT 21/18 A2995 RMK A01 T02080177  RH  082%=      5-min Rain = 0
KTAS 260633Z 17011KT 21/18 A2995 RMK A01 T02070177  RH  083%=      5-min Rain = 0
KTAS 260634Z 16011KT 21/18 A2995 RMK A01 T02070177  RH  083%=      5-min Rain = 0
KTAS 260635Z 17013KT 21/18 A2995 RMK A01 T02070177  RH  083%=      5-min Rain = 0
KTAS 260636Z 17011KT 21/18 A2995 RMK A01 T02070177  RH  083%=      5-min Rain = 0
KTAS 260637Z 17010KT 21/18 A2995 RMK A01 T02070177  RH  083%=      5-min Rain = 0
KTAS 260638Z 17010KT 21/18 A2995 RMK A01 T02060177  RH  083%=      5-min Rain = 0
KTAS 260639Z 17012KT 21/18 A2995 RMK A01 T02060177  RH  083%=      5-min Rain = 0
KTAS 260640Z 17011KT 21/18 A2995 RMK A01 T02060177  RH  083%=      5-min Rain = 0
KTAS 260641Z 17010KT 21/18 A2995 RMK A01 T02060177  RH  083%=      5-min Rain = 0
KTAS 260642Z 17011KT 21/18 A2995 RMK A01 T02060177  RH  083%=      5-min Rain = 0
KTAS 260643Z 17012KT 21/18 A2995 RMK A01 T02060177  RH  083%=      5-min Rain = 0
KTAS 260644Z 17011KT 21/18 A2995 RMK A01 T02070177  RH  083%=      5-min Rain = 0
KTAS 260645Z 17012KT 21/18 A2995 RMK A01 T02080177  RH  083%=      5-min Rain = 0
KTAS 260646Z 17011KT 21/18 A2995 RMK A01 T02080177  RH  082%=      5-min Rain = 0
KTAS 260647Z 17013KT 21/18 A2995 RMK A01 T02080177  RH  082%=      5-min Rain = 0
KTAS 260648Z 17011KT 21/18 A2995 RMK A01 T02090177  RH  082%=      5-min Rain = 0
KTAS 260649Z 17012KT 21/18 A2995 RMK A01 T02080177  RH  082%=      5-min Rain = 0
KTAS 260650Z 17012KT 21/18 A2995 RMK A01 T02080177  RH  082%=      5-min Rain = 0
KTAS 260651Z 16013KT 21/18 A2995 RMK A01 T02080177  RH  082%=      5-min Rain = 0
KTAS 260652Z 17011KT 21/18 A2995 RMK A01 T02090177  RH  082%=      5-min Rain = 0
KTAS 260653Z 17012KT 21/18 A2995 RMK A01 T02080177  RH  082%=      5-min Rain = 0
KTAS 260654Z 17013KT 21/18 A2995 RMK A01 T02080177  RH  082%=      5-min Rain = 0
KTAS 260655Z 17013KT 21/18 A2995 RMK A01 T02090177  RH  082%=      5-min Rain = 0
KTAS 260656Z 17013KT 21/18 A2995 RMK A01 T02100177  RH  082%=      5-min Rain = 0
KTAS 260657Z 17012KT 21/18 A2995 RMK A01 T02100177  RH  082%=      5-min Rain = 0
KTAS 260658Z 17012KT 21/18 A2995 RMK A01 T02100177  RH  082%=      5-min Rain = 0
KTAS 260659Z 17012KT 21/18 A2995 RMK A01 T02090177  RH  082%=      5-min Rain = 0
KTAS 260700Z 17011KT 21/18 A2995 RMK A01 T02080177  RH  082%=      5-min Rain = 0
KTAS 260701Z 17011KT 21/18 A2995 RMK A01 T02080177  RH  082%=      5-min Rain = 0
KTAS 260702Z 17011KT 21/18 A2995 RMK A01 T02070177  RH  083%=      5-min Rain = 0
KTAS 260703Z 17011KT 21/18 A2995 RMK A01 T02060176  RH  083%=      5-min Rain = 0
KTAS 260704Z 17011KT 21/18 A2995 RMK A01 T02060176  RH  083%=      5-min Rain = 0
KTAS 260705Z 17012KT 21/18 A2995 RMK A01 T02050176  RH  083%=      5-min Rain = 0
KTAS 260706Z 17011KT 21/18 A2995 RMK A01 T02050177  RH  084%=      5-min Rain = 0
KTAS 260707Z 17011KT 21/18 A2995 RMK A01 T02050176  RH  084%=      5-min Rain = 0
KTAS 260708Z 17011KT 21/18 A2995 RMK A01 T02050176  RH  084%=      5-min Rain = 0
KTAS 260709Z 17012KT 21/18 A2995 RMK A01 T02050176  RH  084%=      5-min Rain = 0
KTAS 260710Z 17012KT 21/18 A2995 RMK A01 T02050177  RH  084%=      5-min Rain = 0
KTAS 260711Z 17012KT 21/18 A2995 RMK A01 T02050177  RH  084%=      5-min Rain = 0
KTAS 260712Z 17012KT 21/18 A2995 RMK A01 T02050177  RH  084%=      5-min Rain = 0
KTAS 260713Z 17011KT 21/18 A2995 RMK A01 T02050177  RH  084%=      5-min Rain = 0
KTAS 260714Z 17012KT 21/18 A2995 RMK A01 T02050177  RH  084%=      5-min Rain = 0
KTAS 260715Z 17010KT 21/18 A2995 RMK A01 T02050177  RH  084%=      5-min Rain = 0
KTAS 260716Z 17011KT 21/18 A2995 RMK A01 T02050177  RH  084%=      5-min Rain = 0
KTAS 260717Z 17012KT 20/18 A2995 RMK A01 T02040177  RH  084%=      5-min Rain = 0
KTAS 260718Z 17011KT 20/18 A2995 RMK A01 T02040177  RH  084%=      5-min Rain = 0
KTAS 260719Z 17011KT 20/18 A2995 RMK A01 T02040177  RH  084%=      5-min Rain = 0
KTAS 260720Z 17015KT 21/18 A2995 RMK A01 T02050177  RH  084%=      5-min Rain = 0
KTAS 260721Z 17012KT 21/18 A2995 RMK A01 T02060177  RH  084%=      5-min Rain = 0
KTAS 260722Z 17014KT 21/18 A2995 RMK A01 T02060177  RH  083%=      5-min Rain = 0
KTAS 260723Z 17013KT 21/18 A2995 RMK A01 T02070177  RH  083%=      5-min Rain = 0
KTAS 260724Z 17011KT 21/18 A2995 RMK A01 T02070177  RH  083%=      5-min Rain = 0
KTAS 260725Z 17012KT 21/18 A2995 RMK A01 T02050177  RH  084%=      5-min Rain = 0
KTAS 260726Z 17011KT 21/18 A2995 RMK A01 T02050177  RH  084%=      5-min Rain = 0
KTAS 260727Z 17011KT 20/18 A2995 RMK A01 T02040177  RH  084%=      5-min Rain = 0
KTAS 260728Z 17012KT 20/18 A2995 RMK A01 T02040177  RH  085%=      5-min Rain = 0
KTAS 260729Z 17012KT 20/18 A2995 RMK A01 T02030177  RH  085%=      5-min Rain = 0
KTAS 260730Z 17011KT 20/18 A2995 RMK A01 T02040177  RH  085%=      5-min Rain = 0
KTAS 260731Z 17012KT 20/18 A2995 RMK A01 T02030177  RH  085%=      5-min Rain = 0
KTAS 260732Z 17012KT 20/18 A2995 RMK A01 T02030177  RH  085%=      5-min Rain = 0
KTAS 260733Z 17011KT 20/18 A2995 RMK A01 T02040177  RH  085%=      5-min Rain = 0
KTAS 260734Z 17012KT 20/18 A2995 RMK A01 T02040177  RH  085%=      5-min Rain = 0
KTAS 260735Z 17012KT 20/18 A2995 RMK A01 T02040177  RH  085%=      5-min Rain = 0
KTAS 260736Z 17012KT 20/18 A2995 RMK A01 T02040177  RH  085%=      5-min Rain = 0
KTAS 260737Z 17012KT 20/18 A2995 RMK A01 T02040177  RH  084%=      5-min Rain = 0
KTAS 260738Z 17012KT 21/18 A2995 RMK A01 T02050177  RH  084%=      5-min Rain = 0
KTAS 260739Z 17012KT 21/18 A2995 RMK A01 T02050177  RH  084%=      5-min Rain = 0
KTAS 260740Z 17012KT 21/18 A2995 RMK A01 T02050177  RH  084%=      5-min Rain = 0
KTAS 260741Z 17013KT 21/18 A2995 RMK A01 T02050177  RH  084%=      5-min Rain = 0
KTAS 260742Z 16012KT 21/18 A2995 RMK A01 T02050177  RH  084%=      5-min Rain = 0
KTAS 260743Z 17013KT 21/18 A2995 RMK A01 T02050177  RH  084%=      5-min Rain = 0
KTAS 260744Z 17013KT 21/18 A2995 RMK A01 T02050177  RH  084%=      5-min Rain = 0
KTAS 260745Z 17012KT 21/18 A2995 RMK A01 T02060177  RH  084%=      5-min Rain = 0
KTAS 260746Z 17012KT 21/18 A2995 RMK A01 T02060177  RH  084%=      5-min Rain = 0
KTAS 260747Z 16011KT 21/18 A2995 RMK A01 T02050177  RH  084%=      5-min Rain = 0
KTAS 260748Z 16012KT 21/18 A2995 RMK A01 T02050177  RH  084%=      5-min Rain = 0
KTAS 260749Z 16011KT 20/18 A2995 RMK A01 T02040177  RH  084%=      5-min Rain = 0
KTAS 260750Z 16013KT 20/18 A2995 RMK A01 T02040177  RH  085%=      5-min Rain = 0
KTAS 260751Z 16010KT 20/18 A2995 RMK A01 T02040177  RH  084%=      5-min Rain = 0
KTAS 260752Z 16011KT 20/18 A2995 RMK A01 T02030177  RH  085%=      5-min Rain = 0
KTAS 260753Z 16011KT 20/18 A2995 RMK A01 T02030176  RH  085%=      5-min Rain = 0
KTAS 260754Z 16009KT 20/18 A2995 RMK A01 T02030176  RH  085%=      5-min Rain = 0
KTAS 260755Z 16011KT 20/18 A2995 RMK A01 T02030176  RH  085%=      5-min Rain = 0
KTAS 260756Z 16013KT 20/18 A2995 RMK A01 T02030176  RH  085%=      5-min Rain = 0
KTAS 260757Z 16011KT 20/18 A2995 RMK A01 T02040177  RH  084%=      5-min Rain = 0
KTAS 260758Z 16010KT 20/18 A2995 RMK A01 T02040176  RH  084%=      5-min Rain = 0
KTAS 260759Z 16010KT 20/18 A2995 RMK A01 T02040176  RH  084%=      5-min Rain = 0
KTAS 260800Z 16011KT 20/18 A2995 RMK A01 T02040176  RH  084%=      5-min Rain = 0
KTAS 260801Z 16011KT 20/18 A2995 RMK A01 T02030176  RH  084%=      5-min Rain = 0
KTAS 260802Z 15011KT 20/18 A2995 RMK A01 T02030176  RH  085%=      5-min Rain = 0
KTAS 260803Z 16011KT 20/18 A2995 RMK A01 T02030176  RH  085%=      5-min Rain = 0
KTAS 260804Z 15011KT 20/18 A2995 RMK A01 T02020176  RH  085%=      5-min Rain = 0
KTAS 260805Z 15010KT 20/18 A2995 RMK A01 T02030176  RH  085%=      5-min Rain = 0
KTAS 260806Z 16010KT 20/18 A2995 RMK A01 T02030176  RH  085%=      5-min Rain = 0
KTAS 260807Z 15010KT 20/18 A2995 RMK A01 T02020176  RH  085%=      5-min Rain = 0
KTAS 260808Z 15008KT 20/18 A2995 RMK A01 T02030176  RH  085%=      5-min Rain = 0
KTAS 260809Z 15008KT 20/18 A2995 RMK A01 T02020176  RH  085%=      5-min Rain = 0
KTAS 260810Z 15008KT 20/18 A2995 RMK A01 T02020176  RH  085%=      5-min Rain = 0
KTAS 260811Z 15006KT 20/18 A2995 RMK A01 T02020176  RH  085%=      5-min Rain = 0
KTAS 260812Z 14007KT 20/18 A2995 RMK A01 T02010175  RH  085%=      5-min Rain = 0
KTAS 260813Z 14006KT 20/18 A2995 RMK A01 T02010175  RH  085%=      5-min Rain = 0
KTAS 260814Z 14006KT 20/18 A2995 RMK A01 T02000175  RH  085%=      5-min Rain = 0
KTAS 260815Z 14007KT 20/18 A2995 RMK A01 T02000175  RH  086%=      5-min Rain = 0
KTAS 260816Z 13007KT 20/18 A2995 RMK A01 T01990175  RH  086%=      5-min Rain = 0
KTAS 260817Z 13007KT 20/18 A2995 RMK A01 T01980175  RH  086%=      5-min Rain = 0
KTAS 260818Z 13008KT 20/18 A2995 RMK A01 T01980175  RH  086%=      5-min Rain = 0
KTAS 260819Z 13007KT 20/18 A2995 RMK A01 T01980175  RH  086%=      5-min Rain = 0
KTAS 260820Z 14007KT 20/17 A2995 RMK A01 T01980174  RH  086%=      5-min Rain = 0
KTAS 260821Z 14007KT 20/17 A2995 RMK A01 T01980174  RH  086%=      5-min Rain = 0
KTAS 260822Z 13007KT 20/18 A2995 RMK A01 T01980175  RH  086%=      5-min Rain = 0
KTAS 260823Z 14007KT 20/18 A2995 RMK A01 T01990175  RH  086%=      5-min Rain = 0
KTAS 260824Z 14007KT 20/18 A2995 RMK A01 T02010175  RH  085%=      5-min Rain = 0
KTAS 260825Z 13007KT 20/18 A2995 RMK A01 T02010175  RH  085%=      5-min Rain = 0
KTAS 260826Z 15006KT 20/18 A2995 RMK A01 T02010175  RH  085%=      5-min Rain = 0
KTAS 260827Z 14007KT 20/18 A2995 RMK A01 T02010175  RH  085%=      5-min Rain = 0
KTAS 260828Z 14008KT 20/18 A2995 RMK A01 T02010175  RH  085%=      5-min Rain = 0
KTAS 260829Z 15008KT 20/18 A2995 RMK A01 T02010175  RH  085%=      5-min Rain = 0
KTAS 260830Z 15008KT 20/18 A2995 RMK A01 T02010176  RH  085%=      5-min Rain = 0
KTAS 260831Z 15008KT 20/18 A2995 RMK A01 T02010176  RH  085%=      5-min Rain = 0
KTAS 260832Z 15007KT 20/18 A2995 RMK A01 T02010175  RH  085%=      5-min Rain = 0
KTAS 260833Z 15009KT 20/18 A2995 RMK A01 T02010175  RH  085%=      5-min Rain = 0
KTAS 260834Z 15008KT 20/18 A2995 RMK A01 T02010176  RH  085%=      5-min Rain = 0
KTAS 260835Z 16008KT 20/18 A2995 RMK A01 T02010176  RH  085%=      5-min Rain = 0
KTAS 260836Z 15009KT 20/18 A2995 RMK A01 T02010176  RH  085%=      5-min Rain = 0
KTAS 260837Z 15010KT 20/18 A2995 RMK A01 T02010176  RH  085%=      5-min Rain = 0
KTAS 260838Z 15011KT 20/18 A2995 RMK A01 T02020177  RH  085%=      5-min Rain = 0
KTAS 260839Z 15009KT 20/18 A2995 RMK A01 T02020177  RH  085%=      5-min Rain = 0
KTAS 260840Z 15011G16KT 20/18 A2995 RMK A01 T02020177  RH  085%=      5-min Rain = 0
KTAS 260841Z 15011KT 20/18 A2995 RMK A01 T02020177  RH  085%=      5-min Rain = 0
KTAS 260842Z 15010KT 20/18 A2995 RMK A01 T02030177  RH  085%=      5-min Rain = 0
KTAS 260843Z 15011KT 20/18 A2995 RMK A01 T02030178  RH  085%=      5-min Rain = 0
KTAS 260844Z 15011KT 20/18 A2995 RMK A01 T02030178  RH  085%=      5-min Rain = 0
KTAS 260845Z 15012KT 20/18 A2995 RMK A01 T02030178  RH  085%=      5-min Rain = 0
KTAS 260846Z 16011KT 20/18 A2995 RMK A01 T02030178  RH  085%=      5-min Rain = 0
KTAS 260847Z 16013KT 20/18 A2995 RMK A01 T02030178  RH  086%=      5-min Rain = 0
KTAS 260848Z 15012KT 20/18 A2995 RMK A01 T02020178  RH  086%=      5-min Rain = 0
KTAS 260849Z 15011KT 20/18 A2995 RMK A01 T02020178  RH  086%=      5-min Rain = 0
KTAS 260850Z 15011KT 20/18 A2995 RMK A01 T02020179  RH  086%=      5-min Rain = 0
KTAS 260851Z 15011KT 20/18 A2995 RMK A01 T02020179  RH  086%=      5-min Rain = 0
KTAS 260852Z 16011KT 20/18 A2995 RMK A01 T02020179  RH  086%=      5-min Rain = 0
KTAS 260853Z 15011KT 20/18 A2995 RMK A01 T02020179  RH  087%=      5-min Rain = 0
KTAS 260854Z 15012KT 20/18 A2995 RMK A01 T02020179  RH  087%=      5-min Rain = 0
KTAS 260855Z 16012KT 20/18 A2995 RMK A01 T02020179  RH  087%=      5-min Rain = 0
KTAS 260856Z 16013KT 20/18 A2995 RMK A01 T02020180  RH  087%=      5-min Rain = 0
KTAS 260857Z 16013KT 20/18 A2995 RMK A01 T02030180  RH  087%=      5-min Rain = 0
KTAS 260858Z 15015KT 20/18 A2995 RMK A01 T02030180  RH  087%=      5-min Rain = 0
KTAS 260859Z 16012KT 20/18 A2995 RMK A01 T02040181  RH  086%=      5-min Rain = 0
KTAS 260900Z 16011KT 20/18 A2995 RMK A01 T02040180  RH  086%=      5-min Rain = 0
KTAS 260901Z 16011KT 20/18 A2995 RMK A01 T02030180  RH  087%=      5-min Rain = 0
KTAS 260902Z 16012KT 20/18 A2995 RMK A01 T02030180  RH  087%=      5-min Rain = 0
KTAS 260903Z 16014KT 20/18 A2995 RMK A01 T02030181  RH  087%=      5-min Rain = 0
KTAS 260904Z 16013G18KT 20/18 A2995 RMK A01 T02030181  RH  087%=      5-min Rain = 0
KTAS 260905Z 16013KT 20/18 A2995 RMK A01 T02040181  RH  087%=      5-min Rain = 0
KTAS 260906Z 16012KT 20/18 A2995 RMK A01 T02040181  RH  087%=      5-min Rain = 0
KTAS 260907Z 16011KT 20/18 A2995 RMK A01 T02040182  RH  087%=      5-min Rain = 0
KTAS 260908Z 16014G19KT 20/18 A2995 RMK A01 T02040182  RH  087%=      5-min Rain = 0
KTAS 260909Z 16014KT 21/18 A2995 RMK A01 T02050182  RH  087%=      5-min Rain = 0
KTAS 260910Z 16012KT 21/18 A2995 RMK A01 T02050183  RH  087%=      5-min Rain = 0
KTAS 260911Z 15012KT 21/18 A2995 RMK A01 T02050183  RH  087%=      5-min Rain = 0
KTAS 260912Z 16014KT 21/18 A2995 RMK A01 T02050183  RH  087%=      5-min Rain = 0
KTAS 260913Z 16012KT 21/18 A2995 RMK A01 T02050183  RH  087%=      5-min Rain = 0
KTAS 260914Z 16013KT 21/18 A2995 RMK A01 T02060183  RH  087%=      5-min Rain = 0
KTAS 260915Z 16014KT 21/18 A2995 RMK A01 T02060184  RH  087%=      5-min Rain = 0
KTAS 260916Z 16013KT 21/18 A2995 RMK A01 T02060184  RH  087%=      5-min Rain = 0
KTAS 260917Z 16012KT 21/19 A2995 RMK A01 T02070185  RH  087%=      5-min Rain = 0
KTAS 260918Z 15014KT 21/19 A2995 RMK A01 T02060185  RH  087%=      5-min Rain = 0
KTAS 260919Z 15013KT 21/19 A2995 RMK A01 T02070185  RH  087%=      5-min Rain = 0
KTAS 260920Z 16015KT 21/19 A2995 RMK A01 T02080185  RH  087%=      5-min Rain = 0
KTAS 260921Z 15014KT 21/19 A2995 RMK A01 T02080185  RH  086%=      5-min Rain = 0
KTAS 260922Z 15011KT 21/19 A2995 RMK A01 T02080185  RH  086%=      5-min Rain = 0
KTAS 260923Z 15013KT 21/19 A2995 RMK A01 T02080185  RH  087%=      5-min Rain = 0
KTAS 260924Z 16013KT 21/19 A2995 RMK A01 T02080185  RH  086%=      5-min Rain = 0
KTAS 260925Z 15012KT 21/19 A2995 RMK A01 T02080185  RH  086%=      5-min Rain = 0
KTAS 260926Z 16013KT 21/19 A2996 RMK A01 T02080185  RH  087%=      5-min Rain = 0
KTAS 260927Z 15014KT 21/19 A2996 RMK A01 T02090186  RH  087%=      5-min Rain = 0
KTAS 260928Z 15015KT 21/19 A2996 RMK A01 T02090186  RH  087%=      5-min Rain = 0
KTAS 260929Z 15013KT 21/19 A2996 RMK A01 T02090186  RH  087%=      5-min Rain = 0
KTAS 260930Z 16013KT 21/19 A2995 RMK A01 T02090186  RH  087%=      5-min Rain = 0
KTAS 260931Z 15014KT 21/19 A2995 RMK A01 T02080186  RH  087%=      5-min Rain = 0
KTAS 260932Z 15014KT 21/19 A2995 RMK A01 T02080186  RH  087%=      5-min Rain = 0
KTAS 260933Z 16012KT 21/19 A2995 RMK A01 T02080186  RH  087%=      5-min Rain = 0
KTAS 260934Z 15012KT 21/19 A2995 RMK A01 T02080186  RH  087%=      5-min Rain = 0
KTAS 260935Z 16015KT 21/19 A2995 RMK A01 T02080186  RH  087%=      5-min Rain = 0
KTAS 260936Z 16014KT 21/19 A2995 RMK A01 T02080186  RH  087%=      5-min Rain = 0
KTAS 260937Z 15012KT 21/19 A2995 RMK A01 T02080186  RH  087%=      5-min Rain = 0
KTAS 260938Z 15012KT 21/19 A2995 RMK A01 T02080186  RH  087%=      5-min Rain = 0
KTAS 260939Z 15014KT 21/19 A2995 RMK A01 T02080186  RH  087%=      5-min Rain = 0
KTAS 260940Z 16013KT 21/19 A2995 RMK A01 T02090186  RH  087%=      5-min Rain = 0
KTAS 260941Z 15011KT 21/19 A2995 RMK A01 T02090186  RH  086%=      5-min Rain = 0
KTAS 260942Z 15009KT 21/19 A2995 RMK A01 T02090186  RH  087%=      5-min Rain = 0
KTAS 260943Z 14010KT 21/19 A2995 RMK A01 T02090186  RH  087%=      5-min Rain = 0
KTAS 260944Z 14011KT 21/19 A2996 RMK A01 T02080185  RH  087%=      5-min Rain = 0
KTAS 260945Z 14009KT 21/19 A2996 RMK A01 T02080185  RH  087%=      5-min Rain = 0
KTAS 260946Z 14011KT 21/19 A2996 RMK A01 T02080185  RH  087%=      5-min Rain = 0
KTAS 260947Z 14010KT 21/18 A2996 RMK A01 T02070184  RH  087%=      5-min Rain = 0
KTAS 260948Z 14010KT 21/18 A2996 RMK A01 T02060184  RH  087%=      5-min Rain = 0
KTAS 260949Z 14008KT 21/18 A2996 RMK A01 T02060184  RH  087%=      5-min Rain = 0
KTAS 260950Z 14010KT 21/18 A2996 RMK A01 T02060184  RH  087%=      5-min Rain = 0
KTAS 260951Z 14011KT 21/18 A2996 RMK A01 T02060184  RH  087%=      5-min Rain = 0
KTAS 260952Z 14010KT 21/18 A2996 RMK A01 T02070184  RH  087%=      5-min Rain = 0
KTAS 260953Z 14008KT 21/18 A2996 RMK A01 T02060183  RH  087%=      5-min Rain = 0
KTAS 260954Z 15009KT 21/18 A2996 RMK A01 T02060183  RH  087%=      5-min Rain = 0
KTAS 260955Z 13008KT 21/18 A2996 RMK A01 T02050183  RH  087%=      5-min Rain = 0
KTAS 260956Z 14011KT 21/18 A2996 RMK A01 T02050183  RH  087%=      5-min Rain = 0
KTAS 260957Z 13010KT 21/18 A2996 RMK A01 T02050183  RH  087%=      5-min Rain = 0
KTAS 260958Z 15009KT 21/18 A2996 RMK A01 T02050183  RH  087%=      5-min Rain = 0
KTAS 260959Z 14009KT 20/18 A2996 RMK A01 T02040183  RH  087%=      5-min Rain = 0
KTAS 261000Z 15008KT 20/18 A2996 RMK A01 T02040183  RH  087%=      5-min Rain = 0
KTAS 261001Z 14007KT 20/18 A2996 RMK A01 T02040182  RH  087%=      5-min Rain = 0
KTAS 261002Z 15009KT 20/18 A2996 RMK A01 T02040183  RH  088%=      5-min Rain = 0
KTAS 261003Z 15009KT 20/18 A2996 RMK A01 T02040183  RH  088%=      5-min Rain = 0
KTAS 261004Z 15009KT 20/18 A2996 RMK A01 T02040183  RH  088%=      5-min Rain = 0
KTAS 261005Z 14009KT 20/18 A2996 RMK A01 T02040183  RH  088%=      5-min Rain = 0
KTAS 261006Z 15009KT 20/18 A2996 RMK A01 T02040183  RH  088%=      5-min Rain = 0
KTAS 261007Z 15009KT 20/18 A2996 RMK A01 T02040183  RH  088%=      5-min Rain = 0
KTAS 261008Z 15010KT 20/18 A2996 RMK A01 T02040183  RH  088%=      5-min Rain = 0
KTAS 261009Z 15012KT 21/18 A2996 RMK A01 T02050184  RH  088%=      5-min Rain = 0
KTAS 261010Z 15011KT 21/18 A2996 RMK A01 T02050184  RH  088%=      5-min Rain = 0
KTAS 261011Z 16013KT 21/18 A2996 RMK A01 T02050184  RH  088%=      5-min Rain = 0
KTAS 261012Z 15012KT 21/19 A2996 RMK A01 T02050185  RH  088%=      5-min Rain = 0
KTAS 261013Z 15014KT 21/19 A2996 RMK A01 T02060185  RH  088%=      5-min Rain = 0
KTAS 261014Z 16014KT 21/19 A2996 RMK A01 T02060185  RH  088%=      5-min Rain = 0
KTAS 261015Z 16014KT 21/19 A2996 RMK A01 T02070186  RH  088%=      5-min Rain = 0
KTAS 261016Z 16015KT 21/19 A2996 RMK A01 T02070186  RH  088%=      5-min Rain = 0
KTAS 261017Z 16015KT 21/19 A2996 RMK A01 T02070186  RH  088%=      5-min Rain = 0
KTAS 261018Z 16015KT 21/19 A2996 RMK A01 T02080187  RH  088%=      5-min Rain = 0
KTAS 261019Z 16014KT 21/19 A2996 RMK A01 T02080187  RH  088%=      5-min Rain = 0
KTAS 261020Z 16014KT 21/19 A2996 RMK A01 T02080187  RH  088%=      5-min Rain = 0
KTAS 261021Z 16014KT 21/19 A2996 RMK A01 T02080187  RH  088%=      5-min Rain = 0
KTAS 261022Z 16013KT 21/19 A2996 RMK A01 T02080187  RH  088%=      5-min Rain = 0
KTAS 261023Z 16015KT 21/19 A2996 RMK A01 T02080187  RH  088%=      5-min Rain = 0
KTAS 261024Z 16015KT 21/19 A2996 RMK A01 T02080186  RH  088%=      5-min Rain = 0
KTAS 261025Z 16014KT 21/19 A2996 RMK A01 T02080186  RH  087%=      5-min Rain = 0
KTAS 261026Z 16017KT 21/19 A2996 RMK A01 T02080186  RH  087%=      5-min Rain = 0
KTAS 261027Z 16016KT 21/19 A2996 RMK A01 T02080186  RH  087%=      5-min Rain = 0
KTAS 261028Z 16013KT 21/19 A2996 RMK A01 T02080186  RH  087%=      5-min Rain = 0
KTAS 261029Z 15011KT 21/19 A2996 RMK A01 T02080187  RH  087%=      5-min Rain = 0
KTAS 261030Z 16013KT 21/19 A2996 RMK A01 T02080186  RH  087%=      5-min Rain = 0
KTAS 261031Z 15014KT 21/19 A2996 RMK A01 T02080186  RH  087%=      5-min Rain = 0
KTAS 261032Z 15014KT 21/19 A2996 RMK A01 T02080186  RH  087%=      5-min Rain = 0
KTAS 261033Z 15014KT 21/19 A2996 RMK A01 T02080185  RH  087%=      5-min Rain = 0
KTAS 261034Z 14012KT 21/19 A2996 RMK A01 T02070185  RH  087%=      5-min Rain = 0
KTAS 261035Z 15013KT 21/19 A2996 RMK A01 T02070185  RH  087%=      5-min Rain = 0
KTAS 261036Z 14011KT 21/18 A2996 RMK A01 T02070184  RH  087%=      5-min Rain = 0
KTAS 261037Z 15013KT 21/18 A2996 RMK A01 T02060184  RH  087%=      5-min Rain = 0
KTAS 261038Z 15010KT 21/18 A2996 RMK A01 T02060184  RH  087%=      5-min Rain = 0
KTAS 261039Z 16013KT 21/19 A2996 RMK A01 T02060185  RH  087%=      5-min Rain = 0
KTAS 261040Z 16013KT 21/18 A2996 RMK A01 T02060184  RH  087%=      5-min Rain = 0
KTAS 261041Z 15011KT 21/18 A2996 RMK A01 T02060184  RH  087%=      5-min Rain = 0
KTAS 261042Z 16012KT 21/18 A2996 RMK A01 T02050184  RH  088%=      5-min Rain = 0
KTAS 261043Z 15011KT 21/18 A2996 RMK A01 T02050184  RH  088%=      5-min Rain = 0
KTAS 261044Z 15013KT 21/18 A2996 RMK A01 T02050184  RH  088%=      5-min Rain = 0
KTAS 261045Z 15011KT 21/18 A2996 RMK A01 T02050184  RH  087%=      5-min Rain = 0
KTAS 261046Z 15011G17KT 21/18 A2996 RMK A01 T02050184  RH  087%=      5-min Rain = 0
KTAS 261047Z 16013KT 21/18 A2996 RMK A01 T02050184  RH  088%=      5-min Rain = 0
KTAS 261048Z 15012KT 21/18 A2996 RMK A01 T02050184  RH  088%=      5-min Rain = 0
KTAS 261049Z 15012KT 20/18 A2996 RMK A01 T02040183  RH  088%=      5-min Rain = 0
KTAS 261050Z 15012KT 21/18 A2997 RMK A01 T02050183  RH  088%=      5-min Rain = 0
KTAS 261051Z 15013KT 20/18 A2997 RMK A01 T02040184  RH  088%=      5-min Rain = 0
KTAS 261052Z 16012KT 20/18 A2997 RMK A01 T02040183  RH  088%=      5-min Rain = 0
KTAS 261053Z 15010KT 20/18 A2997 RMK A01 T02040183  RH  088%=      5-min Rain = 0
KTAS 261054Z 15009KT 20/18 A2997 RMK A01 T02040183  RH  088%=      5-min Rain = 0
KTAS 261055Z 15010KT 20/18 A2997 RMK A01 T02030183  RH  088%=      5-min Rain = 0
KTAS 261056Z 16011KT 20/18 A2997 RMK A01 T02030183  RH  088%=      5-min Rain = 0
KTAS 261057Z 15011KT 20/18 A2997 RMK A01 T02030183  RH  088%=      5-min Rain = 0
KTAS 261058Z 15011G17KT 20/18 A2997 RMK A01 T02030183  RH  088%=      5-min Rain = 0
KTAS 261059Z 16014KT 20/18 A2997 RMK A01 T02030183  RH  088%=      5-min Rain = 0
KTAS 261100Z 15012KT 20/18 A2997 RMK A01 T02040184  RH  088%=      5-min Rain = 0
KTAS 261101Z 16013KT 20/18 A2997 RMK A01 T02040184  RH  088%=      5-min Rain = 0
KTAS 261102Z 15013KT 20/18 A2997 RMK A01 T02040184  RH  088%=      5-min Rain = 0
KTAS 261103Z 15012KT 20/18 A2997 RMK A01 T02040184  RH  088%=      5-min Rain = 0
KTAS 261104Z 16012KT 20/18 A2997 RMK A01 T02040184  RH  088%=      5-min Rain = 0
KTAS 261105Z 16012KT 20/18 A2997 RMK A01 T02040184  RH  088%=      5-min Rain = 0
KTAS 261106Z 16012KT 20/18 A2997 RMK A01 T02040184  RH  088%=      5-min Rain = 0
KTAS 261107Z 16012KT 20/18 A2997 RMK A01 T02040184  RH  088%=      5-min Rain = 0
KTAS 261108Z 16012KT 20/18 A2997 RMK A01 T02040184  RH  088%=      5-min Rain = 0
KTAS 261109Z 16013KT 20/18 A2997 RMK A01 T02040184  RH  088%=      5-min Rain = 0
KTAS 261110Z 16011KT 20/18 A2997 RMK A01 T02040184  RH  088%=      5-min Rain = 0
KTAS 261111Z 16012KT 20/18 A2997 RMK A01 T02040184  RH  088%=      5-min Rain = 0
KTAS 261112Z 16011KT 20/18 A2997 RMK A01 T02040184  RH  088%=      5-min Rain = 0
KTAS 261113Z 16011KT 20/18 A2998 RMK A01 T02030184  RH  088%=      5-min Rain = 0
KTAS 261114Z 16010KT 20/18 A2998 RMK A01 T02030184  RH  089%=      5-min Rain = 0
KTAS 261115Z 16009KT 20/18 A2998 RMK A01 T02030183  RH  089%=      5-min Rain = 0
KTAS 261116Z 16011KT 20/18 A2998 RMK A01 T02030184  RH  089%=      5-min Rain = 0
KTAS 261117Z 17012KT 20/18 A2998 RMK A01 T02030184  RH  089%=      5-min Rain = 0
KTAS 261118Z 17010KT 20/18 A2998 RMK A01 T02030184  RH  089%=      5-min Rain = 0
KTAS 261119Z 17010KT 20/18 A2998 RMK A01 T02030184  RH  089%=      5-min Rain = 0
KTAS 261120Z 17011KT 20/18 A2998 RMK A01 T02030184  RH  089%=      5-min Rain = 0
KTAS 261121Z 16014G19KT 20/18 A2998 RMK A01 T02040184  RH  089%=      5-min Rain = 0
KTAS 261122Z 16011KT 20/18 A2998 RMK A01 T02040184  RH  088%=      5-min Rain = 0
KTAS 261123Z 16011KT 20/19 A2998 RMK A01 T02040185  RH  088%=      5-min Rain = 0
KTAS 261124Z 16011KT 20/18 A2998 RMK A01 T02040184  RH  088%=      5-min Rain = 0
KTAS 261125Z 16012KT 20/18 A2998 RMK A01 T02040184  RH  089%=      5-min Rain = 0
KTAS 261126Z 16015KT 20/18 A2998 RMK A01 T02040184  RH  088%=      5-min Rain = 0
KTAS 261127Z 17012KT 20/18 A2998 RMK A01 T02040184  RH  088%=      5-min Rain = 0
KTAS 261128Z 16011KT 20/18 A2998 RMK A01 T02040184  RH  088%=      5-min Rain = 0
KTAS 261129Z 17011G17KT 21/19 A2998 RMK A01 T02050185  RH  088%=      5-min Rain = 0
KTAS 261130Z 16012KT 20/19 A2998 RMK A01 T02040185  RH  088%=      5-min Rain = 0
KTAS 261131Z 16014KT 20/18 A2998 RMK A01 T02040184  RH  088%=      5-min Rain = 0
KTAS 261132Z 16013KT 21/19 A2998 RMK A01 T02050185  RH  088%=      5-min Rain = 0
KTAS 261133Z 16012KT 21/19 A2998 RMK A01 T02050185  RH  088%=      5-min Rain = 0
KTAS 261134Z 16014KT 20/18 A2998 RMK A01 T02040184  RH  088%=      5-min Rain = 0
KTAS 261135Z 17014KT 21/18 A2998 RMK A01 T02050184  RH  088%=      5-min Rain = 0
KTAS 261136Z 16016KT 20/18 A2998 RMK A01 T02040184  RH  088%=      5-min Rain = 0
KTAS 261137Z 16014KT 20/18 A2998 RMK A01 T02040184  RH  088%=      5-min Rain = 0
KTAS 261138Z 16014KT 21/19 A2998 RMK A01 T02050185  RH  088%=      5-min Rain = 0
KTAS 261139Z 16014KT 21/19 A2998 RMK A01 T02050185  RH  088%=      5-min Rain = 0
KTAS 261140Z 16015KT 21/19 A2998 RMK A01 T02050185  RH  088%=      5-min Rain = 0
KTAS 261141Z 17014KT 21/19 A2998 RMK A01 T02050185  RH  088%=      5-min Rain = 0
KTAS 261142Z 16012KT 21/19 A2998 RMK A01 T02050185  RH  088%=      5-min Rain = 0
KTAS 261143Z 16013KT 21/19 A2998 RMK A01 T02050185  RH  088%=      5-min Rain = 0
KTAS 261144Z 16013KT 20/19 A2998 RMK A01 T02040185  RH  088%=      5-min Rain = 0
KTAS 261145Z 16014KT 21/19 A2998 RMK A01 T02050185  RH  088%=      5-min Rain = 0
KTAS 261146Z 17013KT 20/19 A2998 RMK A01 T02040185  RH  089%=      5-min Rain = 0
KTAS 261147Z 16013KT 20/19 A2998 RMK A01 T02040185  RH  089%=      5-min Rain = 0
KTAS 261148Z 16015KT 21/19 A2998 RMK A01 T02050185  RH  089%=      5-min Rain = 0
KTAS 261149Z 17015KT 21/19 A2998 RMK A01 T02050185  RH  089%=      5-min Rain = 0
KTAS 261150Z 16016KT 20/19 A2998 RMK A01 T02040185  RH  089%=      5-min Rain = 0
KTAS 261151Z 16012KT 20/19 A2998 RMK A01 T02040185  RH  089%=      5-min Rain = 0
KTAS 261152Z 16012KT 20/19 A2998 RMK A01 T02040185  RH  089%=      5-min Rain = 0
KTAS 261153Z 16010KT 20/19 A2998 RMK A01 T02040185  RH  089%=      5-min Rain = 0
KTAS 261154Z 16013KT 20/19 A2998 RMK A01 T02040185  RH  089%=      5-min Rain = 0
KTAS 261155Z 16012KT 20/19 A2998 RMK A01 T02040185  RH  089%=      5-min Rain = 0
KTAS 261156Z 16014KT 20/19 A2998 RMK A01 T02040185  RH  089%=      5-min Rain = 0
KTAS 261157Z 16016KT 20/19 A2998 RMK A01 T02040185  RH  089%=      5-min Rain = 0
KTAS 261158Z 16013KT 20/19 A2998 RMK A01 T02040185  RH  089%=      5-min Rain = 0
KTAS 261159Z 16012KT 20/19 A2998 RMK A01 T02040185  RH  089%=      5-min Rain = 0
KTAS 261200Z 16015KT 20/19 A2998 RMK A01 T02040185  RH  089%=      5-min Rain = 0
KTAS 261201Z 16014KT 20/19 A2998 RMK A01 T02040185  RH  089%=      5-min Rain = 0
KTAS 261202Z 16014KT 20/19 A2998 RMK A01 T02040185  RH  089%=      5-min Rain = 0
KTAS 261203Z 16012KT 20/19 A2998 RMK A01 T02040185  RH  089%=      5-min Rain = 0
KTAS 261204Z 16014KT 20/19 A2998 RMK A01 T02040185  RH  089%=      5-min Rain = 0
KTAS 261205Z 16015KT 20/19 A2998 RMK A01 T02040185  RH  089%=      5-min Rain = 0
KTAS 261206Z 16012KT 20/19 A2998 RMK A01 T02040185  RH  089%=      5-min Rain = 0
KTAS 261207Z 16014KT 20/19 A2998 RMK A01 T02040186  RH  089%=      5-min Rain = 0
KTAS 261208Z 16013KT 20/19 A2998 RMK A01 T02040186  RH  089%=      5-min Rain = 0
KTAS 261209Z 16013KT 20/19 A2998 RMK A01 T02040186  RH  089%=      5-min Rain = 0
KTAS 261210Z 16014KT 20/19 A2998 RMK A01 T02040186  RH  089%=      5-min Rain = 0
KTAS 261211Z 16015KT 20/19 A2998 RMK A01 T02040186  RH  089%=      5-min Rain = 0
KTAS 261212Z 16011KT 20/19 A2998 RMK A01 T02040186  RH  089%=      5-min Rain = 0
KTAS 261213Z 16014KT 20/19 A2998 RMK A01 T02040186  RH  089%=      5-min Rain = 0
KTAS 261214Z 16012G17KT 20/19 A2998 RMK A01 T02040186  RH  089%=      5-min Rain = 0
KTAS 261215Z 16014G19KT 20/19 A2998 RMK A01 T02040186  RH  089%=      5-min Rain = 0
KTAS 261216Z 16015KT 20/19 A2999 RMK A01 T02040186  RH  089%=      5-min Rain = 0
KTAS 261217Z 16014KT 20/19 A2999 RMK A01 T02040185  RH  089%=      5-min Rain = 0
KTAS 261218Z 16012KT 20/19 A2999 RMK A01 T02040186  RH  089%=      5-min Rain = 0
KTAS 261219Z 16014KT 20/19 A2999 RMK A01 T02040186  RH  089%=      5-min Rain = 0
KTAS 261220Z 16013KT 20/19 A2999 RMK A01 T02040186  RH  089%=      5-min Rain = 0
KTAS 261221Z 16013KT 20/19 A2999 RMK A01 T02040186  RH  089%=      5-min Rain = 0
KTAS 261222Z 16012KT 20/19 A2999 RMK A01 T02040186  RH  089%=      5-min Rain = 0
KTAS 261223Z 17011KT 20/19 A2999 RMK A01 T02030185  RH  089%=      5-min Rain = 0
KTAS 261224Z 17009KT 20/19 A2999 RMK A01 T02030186  RH  090%=      5-min Rain = 0
KTAS 261225Z 16011KT 20/19 A2999 RMK A01 T02030186  RH  090%=      5-min Rain = 0
KTAS 261226Z 16013KT 20/19 A2999 RMK A01 T02030186  RH  090%=      5-min Rain = 0
KTAS 261227Z 16011G16KT 20/19 A2999 RMK A01 T02030185  RH  089%=      5-min Rain = 0
KTAS 261228Z 16012KT 20/19 A2999 RMK A01 T02030185  RH  089%=      5-min Rain = 0
KTAS 261229Z 16011KT 20/19 A2999 RMK A01 T02030185  RH  089%=      5-min Rain = 0
KTAS 261230Z 16012KT 20/19 A2999 RMK A01 T02030185  RH  089%=      5-min Rain = 0
KTAS 261231Z 16010KT 20/19 A2999 RMK A01 T02040186  RH  089%=      5-min Rain = 0
KTAS 261232Z 16011KT 20/19 A2999 RMK A01 T02040186  RH  089%=      5-min Rain = 0
KTAS 261233Z 16010KT 20/19 A2999 RMK A01 T02040186  RH  089%=      5-min Rain = 0
KTAS 261234Z 16013G18KT 20/19 A2999 RMK A01 T02040186  RH  089%=      5-min Rain = 0
KTAS 261235Z 16013KT 20/19 A2999 RMK A01 T02040186  RH  089%=      5-min Rain = 0
KTAS 261236Z 16012KT 21/19 A2999 RMK A01 T02050185  RH  089%=      5-min Rain = 0
KTAS 261237Z 16012KT 21/19 A2999 RMK A01 T02050186  RH  089%=      5-min Rain = 0
KTAS 261238Z 16011KT 21/19 A30 RMK A01 T02050186  RH  089%=      5-min Rain = 0
KTAS 261239Z 16011KT 21/19 A30 RMK A01 T02060186  RH  089%=      5-min Rain = 0
KTAS 261240Z 16013KT 21/19 A30 RMK A01 T02060186  RH  089%=      5-min Rain = 0
KTAS 261241Z 17015G20KT 21/19 A30 RMK A01 T02060186  RH  088%=      5-min Rain = 0
KTAS 261242Z 16012G17KT 21/19 A30 RMK A01 T02060186  RH  088%=      5-min Rain = 0
KTAS 261243Z 16013KT 21/19 A30 RMK A01 T02060186  RH  088%=      5-min Rain = 0
KTAS 261244Z 16014KT 21/19 A30 RMK A01 T02060186  RH  088%=      5-min Rain = 0
KTAS 261245Z 16015KT 21/19 A30 RMK A01 T02060186  RH  088%=      5-min Rain = 0
KTAS 261246Z 17014KT 21/19 A30 RMK A01 T02060186  RH  088%=      5-min Rain = 0
KTAS 261247Z 16015KT 21/19 A30 RMK A01 T02070186  RH  088%=      5-min Rain = 0
KTAS 261248Z 16015KT 21/19 A30 RMK A01 T02070186  RH  088%=      5-min Rain = 0
KTAS 261249Z 16014KT 21/19 A2999 RMK A01 T02070186  RH  088%=      5-min Rain = 0
KTAS 261250Z 16013KT 21/19 A2999 RMK A01 T02070186  RH  088%=      5-min Rain = 0
KTAS 261251Z 16016KT 21/19 A2999 RMK A01 T02070186  RH  088%=      5-min Rain = 0
KTAS 261252Z 16013KT 21/19 A2999 RMK A01 T02070186  RH  088%=      5-min Rain = 0
KTAS 261253Z 16014KT 21/19 A2999 RMK A01 T02080187  RH  088%=      5-min Rain = 0
KTAS 261254Z 17012KT 21/19 A2999 RMK A01 T02080187  RH  088%=      5-min Rain = 0
KTAS 261255Z 16012KT 21/19 A2999 RMK A01 T02080187  RH  088%=      5-min Rain = 0
KTAS 261256Z 16015KT 21/19 A2999 RMK A01 T02080187  RH  088%=      5-min Rain = 0
KTAS 261257Z 16016KT 21/19 A2999 RMK A01 T02080187  RH  088%=      5-min Rain = 0
KTAS 261258Z 16016KT 21/19 A2999 RMK A01 T02080187  RH  088%=      5-min Rain = 0
KTAS 261259Z 15013KT 21/19 A2999 RMK A01 T02070187  RH  088%=      5-min Rain = 0
KTAS 261300Z 16013KT 21/19 A2999 RMK A01 T02070187  RH  088%=      5-min Rain = 0
KTAS 261301Z 16015KT 21/19 A2999 RMK A01 T02070187  RH  088%=      5-min Rain = 0
KTAS 261302Z 16015KT 21/19 A2999 RMK A01 T02070187  RH  088%=      5-min Rain = 0
KTAS 261303Z 16013KT 21/19 A2999 RMK A01 T02070187  RH  088%=      5-min Rain = 0
KTAS 261304Z 16014KT 21/19 A2999 RMK A01 T02070187  RH  088%=      5-min Rain = 0
KTAS 261305Z 16014KT 21/19 A2999 RMK A01 T02070187  RH  088%=      5-min Rain = 0
KTAS 261306Z 16012KT 21/19 A2999 RMK A01 T02070187  RH  088%=      5-min Rain = 0
KTAS 261307Z 16013KT 21/19 A2999 RMK A01 T02070187  RH  088%=      5-min Rain = 0
KTAS 261308Z 16014KT 21/19 A2999 RMK A01 T02070187  RH  088%=      5-min Rain = 0
KTAS 261309Z 16013KT 21/19 A2999 RMK A01 T02070187  RH  088%=      5-min Rain = 0
KTAS 261310Z 16014KT 21/19 A2999 RMK A01 T02070187  RH  088%=      5-min Rain = 0
KTAS 261311Z 16012KT 21/19 A2999 RMK A01 T02070187  RH  088%=      5-min Rain = 0
KTAS 261312Z 16014KT 21/19 A2999 RMK A01 T02070187  RH  088%=      5-min Rain = 0
KTAS 261313Z 16015G20KT 21/19 A2999 RMK A01 T02070187  RH  088%=      5-min Rain = 0
KTAS 261314Z 16015KT 21/19 A2999 RMK A01 T02070187  RH  088%=      5-min Rain = 0
KTAS 261315Z 16013KT 21/19 A2999 RMK A01 T02070187  RH  088%=      5-min Rain = 0
KTAS 261316Z 16013KT 21/19 A2999 RMK A01 T02070187  RH  088%=      5-min Rain = 0
KTAS 261317Z 15015KT 21/19 A2999 RMK A01 T02070187  RH  088%=      5-min Rain = 0
KTAS 261318Z 16015KT 21/19 A2999 RMK A01 T02080187  RH  088%=      5-min Rain = 0
KTAS 261319Z 16012KT 21/19 A2999 RMK A01 T02080187  RH  088%=      5-min Rain = 0
KTAS 261320Z 16017KT 21/19 A2999 RMK A01 T02080187  RH  088%=      5-min Rain = 0
KTAS 261321Z 16013KT 21/19 A2999 RMK A01 T02080187  RH  088%=      5-min Rain = 0
KTAS 261322Z 16016KT 21/19 A2999 RMK A01 T02080187  RH  088%=      5-min Rain = 0
KTAS 261323Z 16016KT 21/19 A2999 RMK A01 T02080187  RH  088%=      5-min Rain = 0
KTAS 261324Z 16014KT 21/19 A2999 RMK A01 T02080187  RH  087%=      5-min Rain = 0
KTAS 261325Z 16015KT 21/19 A2999 RMK A01 T02080187  RH  088%=      5-min Rain = 0
KTAS 261326Z 16012KT 21/19 A2999 RMK A01 T02080187  RH  087%=      5-min Rain = 0
KTAS 261327Z 16014KT 21/19 A2999 RMK A01 T02090187  RH  088%=      5-min Rain = 0
KTAS 261328Z 16014KT 21/19 A2999 RMK A01 T02090187  RH  087%=      5-min Rain = 0
KTAS 261329Z 16011KT 21/19 A2999 RMK A01 T02090187  RH  087%=      5-min Rain = 0
KTAS 261330Z 16012KT 21/19 A2999 RMK A01 T02100188  RH  087%=      5-min Rain = 0
KTAS 261331Z 16016KT 21/19 A2999 RMK A01 T02100187  RH  087%=      5-min Rain = 0
KTAS 261332Z 16015KT 21/19 A2999 RMK A01 T02100187  RH  087%=      5-min Rain = 0
KTAS 261333Z 16016KT 21/19 A2999 RMK A01 T02100187  RH  087%=      5-min Rain = 0
KTAS 261334Z 16015KT 21/19 A2999 RMK A01 T02100187  RH  087%=      5-min Rain = 0
KTAS 261335Z 16016G21KT 21/19 A2999 RMK A01 T02100186  RH  086%=      5-min Rain = 0
KTAS 261336Z 16015KT 21/19 A2999 RMK A01 T02100187  RH  087%=      5-min Rain = 0
KTAS 261337Z 16014KT 21/19 A2999 RMK A01 T02100187  RH  087%=      5-min Rain = 0
KTAS 261338Z 15012KT 21/19 A2999 RMK A01 T02100188  RH  087%=      5-min Rain = 0
KTAS 261339Z 16018G23KT 21/19 A2999 RMK A01 T02100188  RH  087%=      5-min Rain = 0
KTAS 261340Z 16016KT 21/19 A2999 RMK A01 T02100187  RH  087%=      5-min Rain = 0
KTAS 261341Z 16017KT 21/19 A2999 RMK A01 T02100187  RH  087%=      5-min Rain = 0
KTAS 261342Z 16016KT 21/19 A2999 RMK A01 T02100187  RH  087%=      5-min Rain = 0
KTAS 261343Z 16013G18KT 21/19 A2999 RMK A01 T02100188  RH  087%=      5-min Rain = 0
KTAS 261344Z 16018KT 21/19 A2999 RMK A01 T02100187  RH  087%=      5-min Rain = 0
KTAS 261345Z 16017KT 21/19 A2999 RMK A01 T02100187  RH  086%=      5-min Rain = 0
KTAS 261346Z 16020KT 21/19 A2999 RMK A01 T02100186  RH  086%=      5-min Rain = 0
KTAS 261347Z 16013KT 21/19 A2999 RMK A01 T02100187  RH  086%=      5-min Rain = 0
KTAS 261348Z 16019G24KT 21/19 A2999 RMK A01 T02100187  RH  086%=      5-min Rain = 0
KTAS 261349Z 16017KT 21/19 A2999 RMK A01 T02100186  RH  086%=      5-min Rain = 0
KTAS 261350Z 16016KT 21/19 A2999 RMK A01 T02110186  RH  086%=      5-min Rain = 0
KTAS 261351Z 15016G21KT 21/19 A2999 RMK A01 T02110187  RH  086%=      5-min Rain = 0
KTAS 261352Z 15016G21KT 21/19 A2999 RMK A01 T02110186  RH  086%=      5-min Rain = 0
KTAS 261353Z 16016KT 21/19 A2999 RMK A01 T02110187  RH  086%=      5-min Rain = 0
KTAS 261354Z 16015KT 21/19 A2999 RMK A01 T02110187  RH  086%=      5-min Rain = 0
KTAS 261355Z 16016G21KT 21/19 A2999 RMK A01 T02110187  RH  086%=      5-min Rain = 0
KTAS 261356Z 16020G26KT 21/19 A2999 RMK A01 T02110186  RH  086%=      5-min Rain = 0
KTAS 261357Z 16018KT 21/19 A2999 RMK A01 T02110186  RH  085%=      5-min Rain = 0
KTAS 261358Z 16017KT 21/19 A2999 RMK A01 T02110186  RH  086%=      5-min Rain = 0
KTAS 261359Z 16014KT 21/19 A2999 RMK A01 T02120187  RH  086%=      5-min Rain = 0
KTAS 261400Z 16016KT 21/19 A2999 RMK A01 T02120187  RH  086%=      5-min Rain = 0
KTAS 261401Z 16018KT 21/19 A2999 RMK A01 T02120186  RH  085%=      5-min Rain = 0
KTAS 261402Z 16017KT 21/19 A2999 RMK A01 T02120186  RH  085%=      5-min Rain = 0
KTAS 261403Z 16015G20KT 21/19 A2999 RMK A01 T02120186  RH  085%=      5-min Rain = 0
KTAS 261404Z 16018KT 21/19 A2999 RMK A01 T02120186  RH  085%=      5-min Rain = 0
KTAS 261405Z 15020KT 21/19 A2999 RMK A01 T02130186  RH  085%=      5-min Rain = 0
KTAS 261406Z 16017G22KT 21/19 A2999 RMK A01 T02130186  RH  085%=      5-min Rain = 0
KTAS 261407Z 16017KT 21/19 A2999 RMK A01 T02130187  RH  085%=      5-min Rain = 0
KTAS 261408Z 16019KT 21/19 A2999 RMK A01 T02130187  RH  085%=      5-min Rain = 0
KTAS 261409Z 16018KT 21/19 A2999 RMK A01 T02120186  RH  085%=      5-min Rain = 0
KTAS 261410Z 16017KT 21/19 A2999 RMK A01 T02120186  RH  085%=      5-min Rain = 0
KTAS 261411Z 16015KT 21/19 A2999 RMK A01 T02120187  RH  085%=      5-min Rain = 0
KTAS 261412Z 16019KT 21/19 A30 RMK A01 T02120186  RH  085%=      5-min Rain = 0
KTAS 261413Z 16017KT 21/19 A30 RMK A01 T02120186  RH  085%=      5-min Rain = 0
KTAS 261414Z 16016G21KT 21/19 A30 RMK A01 T02120187  RH  085%=      5-min Rain = 0
KTAS 261415Z 16020KT 21/19 A30 RMK A01 T02120186  RH  085%=      5-min Rain = 0
KTAS 261416Z 16017KT 21/19 A30 RMK A01 T02120186  RH  085%=      5-min Rain = 0
KTAS 261417Z 16015KT 21/19 A30 RMK A01 T02130187  RH  085%=      5-min Rain = 0
KTAS 261418Z 16016KT 21/19 A30 RMK A01 T02130187  RH  085%=      5-min Rain = 0
KTAS 261419Z 16016KT 21/19 A30 RMK A01 T02130187  RH  085%=      5-min Rain = 0
KTAS 261420Z 16015KT 21/19 A30 RMK A01 T02130187  RH  085%=      5-min Rain = 0
KTAS 261421Z 16013G19KT 21/19 A30 RMK A01 T02130188  RH  085%=      5-min Rain = 0
KTAS 261422Z 17013KT 21/19 A30 RMK A01 T02140188  RH  085%=      5-min Rain = 0
KTAS 261423Z 16015KT 21/19 A30 RMK A01 T02140187  RH  085%=      5-min Rain = 0
KTAS 261424Z 17016KT 21/19 A30 RMK A01 T02140187  RH  085%=      5-min Rain = 0
KTAS 261425Z 17015KT 21/19 A3001 RMK A01 T02140187  RH  085%=      5-min Rain = 0
KTAS 261426Z 17013G18KT 21/19 A3001 RMK A01 T02140187  RH  085%=      5-min Rain = 0
KTAS 261427Z 16017KT 21/19 A30 RMK A01 T02140187  RH  085%=      5-min Rain = 0
KTAS 261428Z 16016KT 21/19 A3001 RMK A01 T02140186  RH  084%=      5-min Rain = 0
KTAS 261429Z 17018KT 21/19 A3001 RMK A01 T02140187  RH  084%=      5-min Rain = 0
KTAS 261430Z 16017KT 21/19 A3001 RMK A01 T02140187  RH  084%=      5-min Rain = 0
KTAS 261431Z 17018KT 21/19 A3001 RMK A01 T02140186  RH  084%=      5-min Rain = 0
KTAS 261432Z 16017KT 22/19 A3001 RMK A01 T02150187  RH  084%=      5-min Rain = 0
KTAS 261433Z 16019KT 22/19 A3001 RMK A01 T02150187  RH  084%=      5-min Rain = 0
KTAS 261434Z 17015G20KT 22/19 A3001 RMK A01 T02150187  RH  084%=      5-min Rain = 0
KTAS 261435Z 17016KT 22/19 A3001 RMK A01 T02160187  RH  084%=      5-min Rain = 0
KTAS 261436Z 17018KT 22/19 A3001 RMK A01 T02160187  RH  084%=      5-min Rain = 0
KTAS 261437Z 17016KT 22/19 A3001 RMK A01 T02160187  RH  084%=      5-min Rain = 0
KTAS 261438Z 17018G23KT 22/19 A3001 RMK A01 T02160187  RH  084%=      5-min Rain = 0
KTAS 261439Z 17020KT 22/19 A3001 RMK A01 T02160187  RH  083%=      5-min Rain = 0
KTAS 261440Z 17020KT 22/19 A3001 RMK A01 T02160186  RH  083%=      5-min Rain = 0
KTAS 261441Z 17017KT 22/19 A3001 RMK A01 T02160186  RH  083%=      5-min Rain = 0
KTAS 261442Z 17019KT 22/19 A3001 RMK A01 T02160187  RH  083%=      5-min Rain = 0
KTAS 261443Z 17017KT 22/19 A3001 RMK A01 T02160187  RH  083%=      5-min Rain = 0
KTAS 261444Z 17017KT 22/19 A3001 RMK A01 T02160187  RH  084%=      5-min Rain = 0
KTAS 261445Z 17017KT 22/19 A3001 RMK A01 T02160188  RH  084%=      5-min Rain = 0
KTAS 261446Z 17017G22KT 22/19 A3001 RMK A01 T02170188  RH  083%=      5-min Rain = 0
KTAS 261447Z 17019KT 22/19 A3001 RMK A01 T02170187  RH  083%=      5-min Rain = 0
KTAS 261448Z 16012G18KT 22/19 A3001 RMK A01 T02170188  RH  083%=      5-min Rain = 0
KTAS 261449Z 17013KT 22/19 A3001 RMK A01 T02180189  RH  084%=      5-min Rain = 0
KTAS 261450Z 17016KT 22/19 A3001 RMK A01 T02180189  RH  084%=      5-min Rain = 0
KTAS 261451Z 16017KT 22/19 A3001 RMK A01 T02180188  RH  083%=      5-min Rain = 0
KTAS 261452Z 17015KT 22/19 A3001 RMK A01 T02180187  RH  083%=      5-min Rain = 0
KTAS 261453Z 16016KT 22/19 A3001 RMK A01 T02180187  RH  083%=      5-min Rain = 0
KTAS 261454Z 17015G20KT 22/19 A3001 RMK A01 T02180187  RH  083%=      5-min Rain = 0
KTAS 261455Z 17016KT 22/19 A3001 RMK A01 T02170187  RH  083%=      5-min Rain = 0
KTAS 261456Z 16016G21KT 22/19 A3001 RMK A01 T02170187  RH  083%=      5-min Rain = 0
KTAS 261457Z 17017KT 22/19 A3001 RMK A01 T02170187  RH  083%=      5-min Rain = 0
KTAS 261458Z 17017KT 22/19 A3001 RMK A01 T02170186  RH  083%=      5-min Rain = 0
KTAS 261459Z 17015G20KT 22/19 A3001 RMK A01 T02160187  RH  083%=      5-min Rain = 0
KTAS 261500Z 16015KT 22/19 A3001 RMK A01 T02160187  RH  083%=      5-min Rain = 0
KTAS 261501Z 16017KT 22/19 A3001 RMK A01 T02160186  RH  083%=      5-min Rain = 0
KTAS 261502Z 17018G23KT 22/19 A3001 RMK A01 T02160186  RH  083%=      5-min Rain = 0
KTAS 261503Z 17016KT 22/19 A3001 RMK A01 T02160185  RH  083%=      5-min Rain = 0
KTAS 261504Z 16014G19KT 22/19 A3001 RMK A01 T02160187  RH  083%=      5-min Rain = 0
KTAS 261505Z 16016KT 22/19 A3001 RMK A01 T02160186  RH  083%=      5-min Rain = 0
KTAS 261506Z 17019KT 22/19 A3001 RMK A01 T02160186  RH  083%=      5-min Rain = 0
KTAS 261507Z 17018KT 22/19 A3001 RMK A01 T02160186  RH  083%=      5-min Rain = 0
KTAS 261508Z 16015KT 22/19 A3001 RMK A01 T02160186  RH  083%=      5-min Rain = 0
KTAS 261509Z 16013KT 22/19 A3001 RMK A01 T02160186  RH  083%=      5-min Rain = 0
KTAS 261510Z 16013KT 22/19 A3001 RMK A01 T02160187  RH  083%=      5-min Rain = 0
KTAS 261511Z 17012KT 22/19 A3001 RMK A01 T02160188  RH  084%=      5-min Rain = 0
KTAS 261512Z 17013KT 22/19 A3001 RMK A01 T02160187  RH  084%=      5-min Rain = 0
KTAS 261513Z 16013KT 22/19 A3001 RMK A01 T02160187  RH  084%=      5-min Rain = 0
KTAS 261514Z 16013KT 22/19 A3001 RMK A01 T02160187  RH  084%=      5-min Rain = 0
KTAS 261515Z 16012KT 22/19 A3001 RMK A01 T02160187  RH  084%=      5-min Rain = 0
KTAS 261516Z 16012KT 22/19 A3001 RMK A01 T02160187  RH  084%=      5-min Rain = 0
KTAS 261517Z 16013KT 22/19 A3001 RMK A01 T02160187  RH  083%=      5-min Rain = 0
KTAS 261518Z 16011KT 22/19 A3001 RMK A01 T02170188  RH  084%=      5-min Rain = 0
KTAS 261519Z 16011KT 22/19 A3001 RMK A01 T02170188  RH  084%=      5-min Rain = 0
KTAS 261520Z 17010KT 22/19 A3001 RMK A01 T02170189  RH  084%=      5-min Rain = 0
KTAS 261521Z 17016KT 22/19 A3001 RMK A01 T02170188  RH  084%=      5-min Rain = 0
KTAS 261522Z 16015KT 22/19 A3001 RMK A01 T02170187  RH  083%=      5-min Rain = 0
KTAS 261523Z 15014G19KT 22/19 A3001 RMK A01 T02170188  RH  083%=      5-min Rain = 0
KTAS 261524Z 16012KT 22/19 A3001 RMK A01 T02170187  RH  083%=      5-min Rain = 0
KTAS 261525Z 16012KT 22/19 A3001 RMK A01 T02170188  RH  083%=      5-min Rain = 0
KTAS 261526Z 16012KT 22/19 A3001 RMK A01 T02180188  RH  083%=      5-min Rain = 0
KTAS 261527Z 16013KT 22/19 A3001 RMK A01 T02180188  RH  083%=      5-min Rain = 0
KTAS 261528Z 16012KT 22/19 A3001 RMK A01 T02180188  RH  083%=      5-min Rain = 0
KTAS 261529Z 17013KT 22/19 A3001 RMK A01 T02180188  RH  083%=      5-min Rain = 0
KTAS 261530Z 16011KT 22/19 A3001 RMK A01 T02180188  RH  083%=      5-min Rain = 0
KTAS 261531Z 16012KT 22/19 A3001 RMK A01 T02180189  RH  084%=      5-min Rain = 0
KTAS 261532Z 15011KT 22/19 A3001 RMK A01 T02180188  RH  083%=      5-min Rain = 0
KTAS 261533Z 15013KT 22/19 A3001 RMK A01 T02180188  RH  083%=      5-min Rain = 0
KTAS 261534Z 16011KT 22/19 A30 RMK A01 T02180188  RH  083%=      5-min Rain = 0
KTAS 261535Z 16013KT 22/19 A30 RMK A01 T02180188  RH  083%=      5-min Rain = 0
KTAS 261536Z 16013G18KT 22/19 A30 RMK A01 T02190188  RH  083%=      5-min Rain = 0
KTAS 261537Z 17015KT 22/19 A30 RMK A01 T02190187  RH  082%=      5-min Rain = 0
KTAS 261538Z 16014KT 22/19 A30 RMK A01 T02200188  RH  082%=      5-min Rain = 0
KTAS 261539Z 16015KT 22/19 A30 RMK A01 T02200188  RH  082%=      5-min Rain = 0
KTAS 261540Z 15013KT 22/19 A30 RMK A01 T02200188  RH  082%=      5-min Rain = 0
KTAS 261541Z 15014KT 22/19 A3001 RMK A01 T02200188  RH  082%=      5-min Rain = 0
KTAS 261542Z 15013KT 22/19 A30 RMK A01 T02200188  RH  082%=      5-min Rain = 0
KTAS 261543Z 16016KT 22/19 A30 RMK A01 T02200187  RH  082%=      5-min Rain = 0
KTAS 261544Z 16014KT 22/19 A30 RMK A01 T02200187  RH  082%=      5-min Rain = 0
KTAS 261545Z 16016KT 22/19 A30 RMK A01 T02200186  RH  081%=      5-min Rain = 0
KTAS 261546Z 17016G25KT 22/19 A30 RMK A01 T02200186  RH  081%=      5-min Rain = 0
KTAS 261547Z 17019KT 22/19 A30 RMK A01 T02210186  RH  081%=      5-min Rain = 0
KTAS 261548Z 17015G20KT 22/19 A30 RMK A01 T02210185  RH  080%=      5-min Rain = 0
KTAS 261549Z 17015KT 22/19 A30 RMK A01 T02210185  RH  080%=      5-min Rain = 0
KTAS 261550Z 17014KT 22/19 A30 RMK A01 T02210187  RH  081%=      5-min Rain = 0
KTAS 261551Z 16015KT 22/19 A30 RMK A01 T02220186  RH  080%=      5-min Rain = 0
KTAS 261552Z 17017KT 22/19 A30 RMK A01 T02220186  RH  080%=      5-min Rain = 0
KTAS 261553Z 17016KT 22/19 A30 RMK A01 T02220186  RH  080%=      5-min Rain = 0
KTAS 261554Z 17017G22KT 22/19 A30 RMK A01 T02220187  RH  081%=      5-min Rain = 0
KTAS 261555Z 17017KT 22/19 A30 RMK A01 T02220186  RH  080%=      5-min Rain = 0
KTAS 261556Z 16018KT 22/19 A30 RMK A01 T02220186  RH  080%=      5-min Rain = 0
KTAS 261557Z 16017KT 22/19 A30 RMK A01 T02220186  RH  080%=      5-min Rain = 0
KTAS 261558Z 16017KT 22/19 A30 RMK A01 T02230187  RH  080%=      5-min Rain = 0
KTAS 261559Z 16017G22KT 22/19 A30 RMK A01 T02230185  RH  079%=      5-min Rain = 0
KTAS 261600Z 16017KT 22/19 A30 RMK A01 T02230185  RH  079%=      5-min Rain = 0
KTAS 261601Z 16017KT 22/19 A30 RMK A01 T02230185  RH  079%=      5-min Rain = 0
KTAS 261602Z 16018KT 22/19 A30 RMK A01 T02230185  RH  079%=      5-min Rain = 0
KTAS 261603Z 16016KT 22/19 A30 RMK A01 T02220185  RH  079%=      5-min Rain = 0
KTAS 261604Z 17016KT 22/19 A30 RMK A01 T02220185  RH  079%=      5-min Rain = 0
KTAS 261605Z 17013KT 22/19 A30 RMK A01 T02220185  RH  080%=      5-min Rain = 0
KTAS 261606Z 17015G21KT 22/19 A30 RMK A01 T02230186  RH  080%=      5-min Rain = 0
KTAS 261607Z 17013G19KT 22/19 A30 RMK A01 T02240187  RH  080%=      5-min Rain = 0
KTAS 261608Z 18017KT 23/19 A30 RMK A01 T02250187  RH  079%=      5-min Rain = 0
KTAS 261609Z 17018KT 23/19 A30 RMK A01 T02260187  RH  078%=      5-min Rain = 0
KTAS 261610Z 17016KT 23/19 A30 RMK A01 T02260188  RH  079%=      5-min Rain = 0
KTAS 261611Z 17016KT 23/19 A30 RMK A01 T02270186  RH  077%=      5-min Rain = 0
KTAS 261612Z 16018KT 23/19 A30 RMK A01 T02270186  RH  078%=      5-min Rain = 0
KTAS 261613Z 16019KT 23/19 A30 RMK A01 T02260185  RH  078%=      5-min Rain = 0
KTAS 261614Z 16020KT 23/19 A30 RMK A01 T02250185  RH  078%=      5-min Rain = 0
KTAS 261615Z 16017KT 22/18 A30 RMK A01 T02230184  RH  078%=      5-min Rain = 0
KTAS 261616Z 16015KT 22/19 A30 RMK A01 T02230185  RH  079%=      5-min Rain = 0
KTAS 261617Z 16017KT 22/19 A30 RMK A01 T02230185  RH  079%=      5-min Rain = 0
KTAS 261618Z 16017KT 22/19 A30 RMK A01 T02240185  RH  079%=      5-min Rain = 0
KTAS 261619Z 16017KT 22/19 A30 RMK A01 T02240185  RH  078%=      5-min Rain = 0
KTAS 261620Z 17017KT 23/19 A30 RMK A01 T02250185  RH  078%=      5-min Rain = 0
KTAS 261621Z 17018KT 23/19 A30 RMK A01 T02250185  RH  078%=      5-min Rain = 0
KTAS 261622Z 16018KT 23/18 A30 RMK A01 T02250183  RH  077%=      5-min Rain = 0
KTAS 261623Z 16018KT 22/18 A30 RMK A01 T02240183  RH  077%=      5-min Rain = 0
KTAS 261624Z 16018KT 23/18 A30 RMK A01 T02250183  RH  077%=      5-min Rain = 0
KTAS 261625Z 16017KT 23/18 A30 RMK A01 T02250184  RH  077%=      5-min Rain = 0
KTAS 261626Z 16017G22KT 23/18 A30 RMK A01 T02250184  RH  077%=      5-min Rain = 0
KTAS 261627Z 17018KT 22/18 A30 RMK A01 T02240183  RH  077%=      5-min Rain = 0
KTAS 261628Z 16015KT 22/18 A30 RMK A01 T02240184  RH  078%=      5-min Rain = 0
KTAS 261629Z 16012G17KT 23/19 A30 RMK A01 T02250185  RH  078%=      5-min Rain = 0
KTAS 261630Z 16017KT 23/19 A30 RMK A01 T02250186  RH  078%=      5-min Rain = 0
KTAS 261631Z 16016KT 23/18 A3001 RMK A01 T02250184  RH  078%=      5-min Rain = 0
KTAS 261632Z 17018KT 22/18 A3001 RMK A01 T02240183  RH  077%=      5-min Rain = 0
KTAS 261633Z 16015KT 22/18 A3001 RMK A01 T02240183  RH  077%=      5-min Rain = 0
KTAS 261634Z 17016KT 22/18 A3001 RMK A01 T02240183  RH  078%=      5-min Rain = 0
KTAS 261635Z 16013KT 22/18 A3001 RMK A01 T02240184  RH  078%=      5-min Rain = 0
KTAS 261636Z 17017KT 23/18 A3001 RMK A01 T02250184  RH  078%=      5-min Rain = 0
KTAS 261637Z 17019G24KT 23/18 A3001 RMK A01 T02250183  RH  077%=      5-min Rain = 0
KTAS 261638Z 17016KT 22/18 A3001 RMK A01 T02240182  RH  077%=      5-min Rain = 0
KTAS 261639Z 17015G20KT 23/18 A3001 RMK A01 T02250184  RH  077%=      5-min Rain = 0
KTAS 261640Z 16017KT 23/18 A3001 RMK A01 T02250183  RH  077%=      5-min Rain = 0
KTAS 261641Z 16015KT 23/18 A3001 RMK A01 T02250183  RH  077%=      5-min Rain = 0
KTAS 261642Z 17015KT 23/18 A3001 RMK A01 T02250184  RH  078%=      5-min Rain = 0
KTAS 261643Z 16018KT 23/18 A3001 RMK A01 T02260183  RH  077%=      5-min Rain = 0
KTAS 261644Z 17019KT 23/18 A3001 RMK A01 T02260182  RH  076%=      5-min Rain = 0
KTAS 261645Z 17018KT 23/18 A3001 RMK A01 T02250182  RH  076%=      5-min Rain = 0
KTAS 261646Z 16016G21KT 23/18 A3001 RMK A01 T02250183  RH  077%=      5-min Rain = 0
KTAS 261647Z 17017KT 23/18 A3001 RMK A01 T02260183  RH  077%=      5-min Rain = 0
KTAS 261648Z 17014KT 23/18 A3001 RMK A01 T02250184  RH  077%=      5-min Rain = 0
KTAS 261649Z 17017KT 23/18 A3001 RMK A01 T02250183  RH  077%=      5-min Rain = 0
KTAS 261650Z 17017KT 23/18 A3001 RMK A01 T02250182  RH  077%=      5-min Rain = 0
KTAS 261651Z 17017KT 23/18 A3001 RMK A01 T02250183  RH  077%=      5-min Rain = 0
KTAS 261652Z 17015KT 22/18 A3001 RMK A01 T02240182  RH  077%=      5-min Rain = 0
KTAS 261653Z 17016KT 22/18 A3001 RMK A01 T02240183  RH  077%=      5-min Rain = 0
KTAS 261654Z 16019KT 22/18 A3001 RMK A01 T02240182  RH  077%=      5-min Rain = 0
KTAS 261655Z 17016G21KT 23/18 A3001 RMK A01 T02250183  RH  077%=      5-min Rain = 0
KTAS 261656Z 17016G22KT 23/18 A3001 RMK A01 T02250182  RH  077%=      5-min Rain = 0
KTAS 261657Z 17018KT 23/18 A3001 RMK A01 T02250182  RH  077%=      5-min Rain = 0
KTAS 261658Z 16016KT 23/18 A3001 RMK A01 T02250182  RH  077%=      5-min Rain = 0
KTAS 261659Z 16018KT 22/18 A3001 RMK A01 T02240182  RH  077%=      5-min Rain = 0
KTAS 261700Z 17018KT 22/18 A3001 RMK A01 T02240181  RH  076%=      5-min Rain = 0
KTAS 261701Z 18018KT 22/18 A3001 RMK A01 T02240182  RH  077%=      5-min Rain = 0
KTAS 261702Z 17019KT 22/18 A3001 RMK A01 T02240182  RH  077%=      5-min Rain = 0
KTAS 261703Z 17018KT 22/18 A3001 RMK A01 T02240181  RH  077%=      5-min Rain = 0
KTAS 261704Z 17014KT 22/18 A3001 RMK A01 T02240181  RH  077%=      5-min Rain = 0
KTAS 261705Z 17017KT 23/18 A3001 RMK A01 T02250182  RH  077%=      5-min Rain = 0
KTAS 261706Z 17015KT 23/18 A3001 RMK A01 T02260182  RH  076%=      5-min Rain = 0
KTAS 261707Z 18015G22KT 23/18 A3001 RMK A01 T02270184  RH  077%=      5-min Rain = 0
KTAS 261708Z 18019KT 23/18 A3001 RMK A01 T02270183  RH  076%=      5-min Rain = 0
KTAS 261709Z 17017KT 23/18 A3001 RMK A01 T02260182  RH  076%=      5-min Rain = 0
KTAS 261710Z 17017KT 23/18 A3001 RMK A01 T02260182  RH  076%=      5-min Rain = 0
KTAS 261711Z 17016G21KT 23/18 A3001 RMK A01 T02260181  RH  076%=      5-min Rain = 0
KTAS 261712Z 16018KT 23/18 A30 RMK A01 T02260182  RH  076%=      5-min Rain = 0
KTAS 261713Z 16018KT 23/18 A30 RMK A01 T02260183  RH  076%=      5-min Rain = 0
KTAS 261714Z 16017KT 23/18 A30 RMK A01 T02260182  RH  076%=      5-min Rain = 0
KTAS 261715Z 16015KT 23/18 A30 RMK A01 T02260184  RH  077%=      5-min Rain = 0
KTAS 261716Z 15017KT 23/18 A30 RMK A01 T02260184  RH  077%=      5-min Rain = 0
KTAS 261717Z 15017KT 23/18 A30 RMK A01 T02260184  RH  077%=      5-min Rain = 0
KTAS 261718Z 16016KT 23/18 A30 RMK A01 T02260183  RH  077%=      5-min Rain = 0
KTAS 261719Z 17018KT 23/18 A30 RMK A01 T02260183  RH  077%=      5-min Rain = 0
KTAS 261720Z 17016KT 23/18 A30 RMK A01 T02260184  RH  077%=      5-min Rain = 0
KTAS 261721Z 16015KT 23/18 A3001 RMK A01 T02260184  RH  077%=      5-min Rain = 0
KTAS 261722Z 16015KT 23/18 A3001 RMK A01 T02270184  RH  077%=      5-min Rain = 0
KTAS 261723Z 16016KT 23/18 A3001 RMK A01 T02270184  RH  076%=      5-min Rain = 0
KTAS 261724Z 16015KT 23/18 A3001 RMK A01 T02280184  RH  076%=      5-min Rain = 0
KTAS 261725Z 16015KT 23/18 A3001 RMK A01 T02290184  RH  076%=      5-min Rain = 0
KTAS 261726Z 17017KT 23/18 A30 RMK A01 T02280184  RH  076%=      5-min Rain = 0
KTAS 261727Z 16015KT 23/18 A30 RMK A01 T02270184  RH  076%=      5-min Rain = 0
KTAS 261728Z 16017KT 23/18 A30 RMK A01 T02270184  RH  077%=      5-min Rain = 0
KTAS 261729Z 16016KT 23/18 A30 RMK A01 T02280184  RH  076%=      5-min Rain = 0
KTAS 261730Z 15015KT 23/19 A30 RMK A01 T02290186  RH  077%=      5-min Rain = 0
KTAS 261731Z 15016G22KT 23/19 A30 RMK A01 T02290185  RH  076%=      5-min Rain = 0
KTAS 261732Z 16018KT 23/19 A3001 RMK A01 T02300186  RH  076%=      5-min Rain = 0
KTAS 261733Z 15016KT 23/19 A3001 RMK A01 T02300186  RH  076%=      5-min Rain = 0
KTAS 261734Z 16017KT 23/19 A3001 RMK A01 T02290185  RH  076%=      5-min Rain = 0
KTAS 261735Z 16018KT 23/18 A3001 RMK A01 T02290184  RH  076%=      5-min Rain = 0
KTAS 261736Z 17017KT 23/18 A3001 RMK A01 T02280184  RH  076%=      5-min Rain = 0
KTAS 261737Z 17016KT 23/19 A3001 RMK A01 T02280185  RH  077%=      5-min Rain = 0
KTAS 261738Z 17015KT 23/19 A3001 RMK A01 T02280186  RH  077%=      5-min Rain = 0
KTAS 261739Z 17016KT 23/19 A3001 RMK A01 T02280185  RH  077%=      5-min Rain = 0
KTAS 261740Z 16016KT 23/19 A3001 RMK A01 T02280185  RH  077%=      5-min Rain = 0
KTAS 261741Z 17018KT 23/19 A3001 RMK A01 T02280185  RH  077%=      5-min Rain = 0
KTAS 261742Z 17016G21KT 23/18 A3001 RMK A01 T02270184  RH  077%=      5-min Rain = 0
KTAS 261743Z 17017KT 23/18 A3001 RMK A01 T02260184  RH  077%=      5-min Rain = 0
KTAS 261744Z 17015KT 23/18 A30 RMK A01 T02260184  RH  077%=      5-min Rain = 0
KTAS 261745Z 16013KT 23/19 A3001 RMK A01 T02270186  RH  078%=      5-min Rain = 0
KTAS 261746Z 16014KT 23/19 A30 RMK A01 T02290187  RH  077%=      5-min Rain = 0
KTAS 261747Z 17015KT 23/19 A30 RMK A01 T02300186  RH  076%=      5-min Rain = 0
KTAS 261748Z 17020KT 23/19 A30 RMK A01 T02290185  RH  076%=      5-min Rain = 0
KTAS 261749Z 16014KT 23/18 A30 RMK A01 T02280184  RH  076%=      5-min Rain = 0
KTAS 261750Z 16012G18KT 23/19 A30 RMK A01 T02280186  RH  077%=      5-min Rain = 0
KTAS 261751Z 16014KT 23/19 A30 RMK A01 T02280185  RH  077%=      5-min Rain = 0
KTAS 261752Z 17017G22KT 23/19 A30 RMK A01 T02280185  RH  077%=      5-min Rain = 0
KTAS 261753Z 17018KT 23/18 A30 RMK A01 T02270183  RH  076%=      5-min Rain = 0
KTAS 261754Z 17018KT 23/18 A3001 RMK A01 T02270184  RH  077%=      5-min Rain = 0
KTAS 261755Z 16015KT 23/18 A3001 RMK A01 T02270184  RH  077%=      5-min Rain = 0
KTAS 261756Z 16015KT 23/19 A3001 RMK A01 T02270185  RH  077%=      5-min Rain = 0
KTAS 261757Z 16017KT 23/18 A3001 RMK A01 T02260184  RH  077%=      5-min Rain = 0
KTAS 261758Z 16017KT 23/18 A3001 RMK A01 T02250183  RH  077%=      5-min Rain = 0
KTAS 261759Z 16014KT 23/18 A3001 RMK A01 T02250183  RH  077%=      5-min Rain = 0
KTAS 261800Z 17014KT 22/18 A3001 RMK A01 T02240184  RH  078%=      5-min Rain = 0
KTAS 261801Z 16014KT 23/18 A3001 RMK A01 T02250184  RH  078%=      5-min Rain = 0
KTAS 261802Z 16013KT 23/18 A3001 RMK A01 T02250184  RH  078%=      5-min Rain = 0
KTAS 261803Z 16013G18KT 23/19 A3001 RMK A01 T02250185  RH  078%=      5-min Rain = 0
KTAS 261804Z 16017KT 23/18 A3001 RMK A01 T02260184  RH  078%=      5-min Rain = 0
KTAS 261805Z 15018KT 23/18 A3001 RMK A01 T02250184  RH  077%=      5-min Rain = 0
KTAS 261806Z 16015KT 23/18 A30 RMK A01 T02250184  RH  078%=      5-min Rain = 0
KTAS 261807Z 17015KT 23/19 A30 RMK A01 T02250186  RH  078%=      5-min Rain = 0
KTAS 261808Z 16015KT 23/19 A30 RMK A01 T02260185  RH  077%=      5-min Rain = 0
KTAS 261809Z 17015KT 23/19 A30 RMK A01 T02260185  RH  078%=      5-min Rain = 0
KTAS 261810Z 16014KT 23/19 A30 RMK A01 T02250186  RH  078%=      5-min Rain = 0
KTAS 261811Z 16014G19KT 23/19 A30 RMK A01 T02260186  RH  078%=      5-min Rain = 0
KTAS 261812Z 16019KT 23/19 A30 RMK A01 T02260185  RH  077%=      5-min Rain = 0
KTAS 261813Z 17015G20KT 23/18 A30 RMK A01 T02250184  RH  077%=      5-min Rain = 0
KTAS 261814Z 17017KT 23/18 A30 RMK A01 T02260184  RH  077%=      5-min Rain = 0
KTAS 261815Z 16016KT 23/19 A30 RMK A01 T02250185  RH  078%=      5-min Rain = 0
KTAS 261816Z 17015KT 23/19 A30 RMK A01 T02260185  RH  078%=      5-min Rain = 0
KTAS 261817Z 17017KT 23/18 A30 RMK A01 T02260184  RH  077%=      5-min Rain = 0
KTAS 261818Z 17017KT 23/18 A30 RMK A01 T02260184  RH  077%=      5-min Rain = 0
KTAS 261819Z 17019KT 23/18 A30 RMK A01 T02250183  RH  077%=      5-min Rain = 0
KTAS 261820Z 18017KT 23/18 A30 RMK A01 T02250183  RH  077%=      5-min Rain = 0
KTAS 261821Z 17016KT 23/18 A30 RMK A01 T02250184  RH  077%=      5-min Rain = 0
KTAS 261822Z 17019KT 23/18 A30 RMK A01 T02250184  RH  077%=      5-min Rain = 0
KTAS 261823Z 17018KT 23/18 A30 RMK A01 T02250184  RH  077%=      5-min Rain = 0
KTAS 261824Z 17017KT 23/18 A3001 RMK A01 T02250184  RH  077%=      5-min Rain = 0
KTAS 261825Z 17017KT 23/18 A3001 RMK A01 T02250184  RH  078%=      5-min Rain = 0
KTAS 261826Z 17015KT 23/19 A3001 RMK A01 T02250185  RH  078%=      5-min Rain = 0
KTAS 261827Z 17017KT 23/19 A3001 RMK A01 T02250185  RH  078%=      5-min Rain = 0
KTAS 261828Z 16018KT 23/18 A3001 RMK A01 T02250184  RH  077%=      5-min Rain = 0
KTAS 261829Z 17014KT 23/19 A3001 RMK A01 T02260185  RH  078%=      5-min Rain = 0
KTAS 261830Z 17014G19KT 23/19 A3001 RMK A01 T02250185  RH  078%=      5-min Rain = 0
KTAS 261831Z 16016KT 23/18 A3001 RMK A01 T02250184  RH  078%=      5-min Rain = 0
KTAS 261832Z 16017KT 23/18 A3001 RMK A01 T02250184  RH  078%=      5-min Rain = 0
KTAS 261833Z 16015KT 22/18 A3001 RMK A01 T02240184  RH  078%=      5-min Rain = 0
KTAS 261834Z 16015KT 22/19 A3001 RMK A01 T02240185  RH  078%=      5-min Rain = 0
KTAS 261835Z 16014G19KT 23/19 A3001 RMK A01 T02250186  RH  079%=      5-min Rain = 0
KTAS 261836Z 16017KT 23/19 A3001 RMK A01 T02250186  RH  078%=      5-min Rain = 0
KTAS 261837Z 16013G18KT 23/19 A30 RMK A01 T02250185  RH  078%=      5-min Rain = 0
KTAS 261838Z 17014KT 23/19 A30 RMK A01 T02250186  RH  079%=      5-min Rain = 0
KTAS 261839Z 17016KT 23/19 A30 RMK A01 T02250186  RH  078%=      5-min Rain = 0
KTAS 261840Z 17016KT 23/19 A30 RMK A01 T02250185  RH  078%=      5-min Rain = 0
KTAS 261841Z 17015G21KT 23/19 A30 RMK A01 T02250186  RH  078%=      5-min Rain = 0
KTAS 261842Z 17017KT 23/19 A30 RMK A01 T02250185  RH  078%=      5-min Rain = 0
KTAS 261843Z 16016KT 23/19 A30 RMK A01 T02250185  RH  078%=      5-min Rain = 0
KTAS 261844Z 17014KT 23/19 A30 RMK A01 T02250186  RH  078%=      5-min Rain = 0
KTAS 261845Z 17014G19KT 23/19 A3001 RMK A01 T02250186  RH  079%=      5-min Rain = 0
KTAS 261846Z 18013KT 23/19 A3001 RMK A01 T02260186  RH  078%=      5-min Rain = 0
KTAS 261847Z 17015KT 23/19 A3001 RMK A01 T02250186  RH  078%=      5-min Rain = 0
KTAS 261848Z 16018G23KT 23/19 A3001 RMK A01 T02250185  RH  078%=      5-min Rain = 0
KTAS 261849Z 16017KT 23/18 A3001 RMK A01 T02250184  RH  078%=      5-min Rain = 0
KTAS 261850Z 16016KT 23/19 A3001 RMK A01 T02250185  RH  078%=      5-min Rain = 0
KTAS 261851Z 17017G22KT 23/19 A3001 RMK A01 T02250185  RH  078%=      5-min Rain = 0
KTAS 261852Z 16012KT 23/19 A3001 RMK A01 T02250185  RH  078%=      5-min Rain = 0
KTAS 261853Z 17012KT 23/19 A3001 RMK A01 T02250186  RH  079%=      5-min Rain = 0
KTAS 261854Z 16014G19KT 23/19 A3001 RMK A01 T02250187  RH  079%=      5-min Rain = 0
KTAS 261855Z 17018KT 23/19 A3001 RMK A01 T02250185  RH  078%=      5-min Rain = 0
KTAS 261856Z 17017G22KT 23/19 A3001 RMK A01 T02250185  RH  078%=      5-min Rain = 0
KTAS 261857Z 17017KT 23/19 A3001 RMK A01 T02250185  RH  078%=      5-min Rain = 0
KTAS 261858Z 17016KT 23/19 A3001 RMK A01 T02260186  RH  078%=      5-min Rain = 0
KTAS 261859Z 18018KT 23/19 A3001 RMK A01 T02270186  RH  078%=      5-min Rain = 0
KTAS 261900Z 18016KT 23/19 A3001 RMK A01 T02260185  RH  077%=      5-min Rain = 0
KTAS 261901Z 17019KT 23/19 A3001 RMK A01 T02260186  RH  078%=      5-min Rain = 0
KTAS 261902Z 17018KT 23/18 A3001 RMK A01 T02260184  RH  077%=      5-min Rain = 0
KTAS 261903Z 18018KT 23/19 A3001 RMK A01 T02260185  RH  078%=      5-min Rain = 0
KTAS 261904Z 18017KT 23/19 A3001 RMK A01 T02260185  RH  077%=      5-min Rain = 0
KTAS 261905Z 17018KT 23/19 A3001 RMK A01 T02270185  RH  077%=      5-min Rain = 0
KTAS 261906Z 17016G21KT 23/19 A3001 RMK A01 T02270185  RH  077%=      5-min Rain = 0
KTAS 261907Z 17018KT 23/19 A3001 RMK A01 T02270186  RH  078%=      5-min Rain = 0
KTAS 261908Z 17018KT 23/19 A3001 RMK A01 T02260185  RH  078%=      5-min Rain = 0
KTAS 261909Z 17015G21KT 23/19 A3001 RMK A01 T02260186  RH  078%=      5-min Rain = 0
KTAS 261910Z 18016KT 23/19 A3001 RMK A01 T02270186  RH  078%=      5-min Rain = 0
KTAS 261911Z 17013KT 23/19 A3001 RMK A01 T02270187  RH  078%=      5-min Rain = 0
KTAS 261912Z 16016KT 23/19 A3001 RMK A01 T02270187  RH  078%=      5-min Rain = 0
KTAS 261913Z 17018KT 23/19 A3001 RMK A01 T02260186  RH  078%=      5-min Rain = 0
KTAS 261914Z 17018KT 23/19 A3001 RMK A01 T02260186  RH  078%=      5-min Rain = 0
KTAS 261915Z 17015KT 23/19 A3001 RMK A01 T02250186  RH  078%=      5-min Rain = 0
KTAS 261916Z 18014G20KT 23/19 A3001 RMK A01 T02260187  RH  079%=      5-min Rain = 0
KTAS 261917Z 18015KT 23/19 A3001 RMK A01 T02250186  RH  078%=      5-min Rain = 0
KTAS 261918Z 18015KT 23/19 A3001 RMK A01 T02250187  RH  079%=      5-min Rain = 0
KTAS 261919Z 18016KT 23/19 A3001 RMK A01 T02260186  RH  078%=      5-min Rain = 0
KTAS 261920Z 17017KT 23/19 A3001 RMK A01 T02260187  RH  078%=      5-min Rain = 0
KTAS 261921Z 18013KT 23/19 A3001 RMK A01 T02270187  RH  078%=      5-min Rain = 0
KTAS 261922Z 18012KT 23/19 A3002 RMK A01 T02270188  RH  079%=      5-min Rain = 0
KTAS 261923Z 17016KT 23/19 A3002 RMK A01 T02270187  RH  078%=      5-min Rain = 0
KTAS 261924Z 17014KT 23/19 A3002 RMK A01 T02270188  RH  079%=      5-min Rain = 0
KTAS 261925Z 18016KT 23/19 A3002 RMK A01 T02270187  RH  078%=      5-min Rain = 0
KTAS 261926Z 18012KT 23/19 A3002 RMK A01 T02270187  RH  078%=      5-min Rain = 0
KTAS 261927Z 17014KT 23/19 A3002 RMK A01 T02280188  RH  078%=      5-min Rain = 0
KTAS 261928Z 17016KT 23/19 A3001 RMK A01 T02280187  RH  078%=      5-min Rain = 0
KTAS 261929Z 18013KT 23/19 A3001 RMK A01 T02280188  RH  078%=      5-min Rain = 0
KTAS 261930Z 18014KT 23/19 A3001 RMK A01 T02280188  RH  078%=      5-min Rain = 0
KTAS 261931Z 17013KT 23/19 A3001 RMK A01 T02290188  RH  078%=      5-min Rain = 0
KTAS 261932Z 17013KT 23/19 A3001 RMK A01 T02290188  RH  078%=      5-min Rain = 0
KTAS 261933Z 17014KT 23/19 A3001 RMK A01 T02300189  RH  078%=      5-min Rain = 0
KTAS 261934Z 17014KT 23/19 A3001 RMK A01 T02300188  RH  077%=      5-min Rain = 0
KTAS 261935Z 17011KT 23/19 A3001 RMK A01 T02310190  RH  078%=      5-min Rain = 0
KTAS 261936Z 17013KT 23/19 A3001 RMK A01 T02310190  RH  077%=      5-min Rain = 0
KTAS 261937Z 16014KT 23/19 A3001 RMK A01 T02320189  RH  077%=      5-min Rain = 0
KTAS 261938Z 17013G18KT 23/19 A3001 RMK A01 T02330189  RH  076%=      5-min Rain = 0
KTAS 261939Z 17015KT 23/19 A3001 RMK A01 T02340190  RH  076%=      5-min Rain = 0
KTAS 261940Z 17015KT 23/19 A3001 RMK A01 T02340189  RH  076%=      5-min Rain = 0
KTAS 261941Z 16017KT 23/19 A3001 RMK A01 T02340188  RH  075%=      5-min Rain = 0
KTAS 261942Z 16016KT 23/19 A3001 RMK A01 T02340188  RH  075%=      5-min Rain = 0
KTAS 261943Z 16015G20KT 23/19 A30 RMK A01 T02340189  RH  076%=      5-min Rain = 0
KTAS 261944Z 16015KT 23/19 A30 RMK A01 T02340188  RH  075%=      5-min Rain = 0
KTAS 261945Z 16015KT 24/19 A30 RMK A01 T02350190  RH  076%=      5-min Rain = 0
KTAS 261946Z 17015KT 24/19 A30 RMK A01 T02350190  RH  076%=      5-min Rain = 0
KTAS 261947Z 17015KT 24/19 A30 RMK A01 T02350190  RH  076%=      5-min Rain = 0
KTAS 261948Z 16014KT 24/19 A30 RMK A01 T02360190  RH  075%=      5-min Rain = 0
KTAS 261949Z 16017KT 24/19 A30 RMK A01 T02370190  RH  075%=      5-min Rain = 0
KTAS 261950Z 16014KT 24/19 A30 RMK A01 T02370190  RH  075%=      5-min Rain = 0
KTAS 261951Z 16014KT 24/19 A30 RMK A01 T02380191  RH  075%=      5-min Rain = 0
KTAS 261952Z 16014KT 24/19 A30 RMK A01 T02390192  RH  075%=      5-min Rain = 0
KTAS 261953Z 16013KT 24/19 A30 RMK A01 T02400192  RH  075%=      5-min Rain = 0
KTAS 261954Z 16014KT 24/19 A30 RMK A01 T02410192  RH  074%=      5-min Rain = 0
KTAS 261955Z 16013KT 24/19 A30 RMK A01 T02410193  RH  074%=      5-min Rain = 0
KTAS 261956Z 17013KT 24/19 A30 RMK A01 T02410193  RH  074%=      5-min Rain = 0
KTAS 261957Z 16012KT 24/19 A30 RMK A01 T02420193  RH  074%=      5-min Rain = 0
KTAS 261958Z 16014KT 24/20 A30 RMK A01 T02430195  RH  074%=      5-min Rain = 0
KTAS 261959Z 16015KT 24/19 A30 RMK A01 T02430191  RH  073%=      5-min Rain = 0
KTAS 262000Z 16014KT 24/19 A2999 RMK A01 T02430192  RH  073%=      5-min Rain = 0
KTAS 262001Z 17015KT 24/19 A2999 RMK A01 T02430193  RH  074%=      5-min Rain = 0
KTAS 262002Z 16013G19KT 24/19 A2999 RMK A01 T02430191  RH  073%=      5-min Rain = 0
KTAS 262003Z 16012KT 24/19 A2999 RMK A01 T02430194  RH  074%=      5-min Rain = 0
KTAS 262004Z 17017KT 24/19 A2999 RMK A01 T02440193  RH  073%=      5-min Rain = 0
KTAS 262005Z 18016KT 24/19 A2999 RMK A01 T02420190  RH  072%=      5-min Rain = 0
KTAS 262006Z 17017KT 24/19 A2999 RMK A01 T02410190  RH  073%=      5-min Rain = 0
KTAS 262007Z 17014KT 24/19 A2999 RMK A01 T02410191  RH  074%=      5-min Rain = 0
KTAS 262008Z 17012KT 24/19 A2999 RMK A01 T02410192  RH  074%=      5-min Rain = 0
KTAS 262009Z 16013KT 24/19 A2999 RMK A01 T02420193  RH  074%=      5-min Rain = 0
KTAS 262010Z 16016KT 24/19 A2999 RMK A01 T02420191  RH  073%=      5-min Rain = 0
KTAS 262011Z 17015KT 24/19 A2999 RMK A01 T02420191  RH  073%=      5-min Rain = 0
KTAS 262012Z 17015KT 24/19 A2999 RMK A01 T02420192  RH  073%=      5-min Rain = 0
KTAS 262013Z 17013KT 24/19 A2999 RMK A01 T02430191  RH  073%=      5-min Rain = 0
KTAS 262014Z 16013KT 24/19 A2999 RMK A01 T02440193  RH  073%=      5-min Rain = 0
KTAS 262015Z 18013KT 24/19 A2999 RMK A01 T02440192  RH  073%=      5-min Rain = 0
KTAS 262016Z 17015KT 24/19 A2999 RMK A01 T02440192  RH  073%=      5-min Rain = 0
KTAS 262017Z 18014KT 24/19 A2999 RMK A01 T02440193  RH  073%=      5-min Rain = 0
KTAS 262018Z 16014KT 24/19 A2999 RMK A01 T02440192  RH  073%=      5-min Rain = 0
KTAS 262019Z 16017KT 24/19 A2999 RMK A01 T02440191  RH  072%=      5-min Rain = 0
KTAS 262020Z 17015KT 24/19 A2999 RMK A01 T02430191  RH  073%=      5-min Rain = 0
KTAS 262021Z 17015KT 24/19 A2999 RMK A01 T02430191  RH  073%=      5-min Rain = 0
KTAS 262022Z 17015KT 24/19 A2999 RMK A01 T02430191  RH  073%=      5-min Rain = 0
KTAS 262023Z 16015KT 24/19 A2999 RMK A01 T02420190  RH  073%=      5-min Rain = 0
KTAS 262024Z 16012KT 24/19 A2999 RMK A01 T02410189  RH  073%=      5-min Rain = 0
KTAS 262025Z 16013KT 24/19 A2998 RMK A01 T02410192  RH  074%=      5-min Rain = 0
KTAS 262026Z 16014G19KT 24/19 A2998 RMK A01 T02410190  RH  073%=      5-min Rain = 0
KTAS 262027Z 17019KT 24/19 A2998 RMK A01 T02410189  RH  073%=      5-min Rain = 0
KTAS 262028Z 17018KT 24/19 A2998 RMK A01 T02410189  RH  073%=      5-min Rain = 0
KTAS 262029Z 17015KT 24/19 A2999 RMK A01 T02400189  RH  073%=      5-min Rain = 0
KTAS 262030Z 16014KT 24/19 A2999 RMK A01 T02400189  RH  073%=      5-min Rain = 0
KTAS 262031Z 16014KT 24/19 A2999 RMK A01 T02410189  RH  073%=      5-min Rain = 0
KTAS 262032Z 17014KT 24/19 A2999 RMK A01 T02410190  RH  073%=      5-min Rain = 0
KTAS 262033Z 16016KT 24/19 A2999 RMK A01 T02420190  RH  073%=      5-min Rain = 0
KTAS 262034Z 16014KT 24/19 A2998 RMK A01 T02420189  RH  072%=      5-min Rain = 0
KTAS 262035Z 16013G18KT 24/19 A2998 RMK A01 T02420190  RH  073%=      5-min Rain = 0
KTAS 262036Z 16017KT 24/19 A2998 RMK A01 T02430190  RH  072%=      5-min Rain = 0
KTAS 262037Z 16016KT 24/19 A2998 RMK A01 T02430189  RH  072%=      5-min Rain = 0
KTAS 262038Z 16015KT 24/19 A2998 RMK A01 T02430189  RH  072%=      5-min Rain = 0
KTAS 262039Z 16014KT 24/19 A2998 RMK A01 T02440190  RH  072%=      5-min Rain = 0
KTAS 262040Z 17014KT 24/19 A2998 RMK A01 T02440190  RH  072%=      5-min Rain = 0
KTAS 262041Z 17014KT 24/19 A2998 RMK A01 T02440190  RH  072%=      5-min Rain = 0
KTAS 262042Z 16015KT 25/19 A2998 RMK A01 T02450191  RH  072%=      5-min Rain = 0
KTAS 262043Z 16016KT 25/19 A2997 RMK A01 T02460191  RH  071%=      5-min Rain = 0
KTAS 262044Z 16015KT 25/19 A2997 RMK A01 T02450189  RH  071%=      5-min Rain = 0
KTAS 262045Z 17013G18KT 25/19 A2997 RMK A01 T02450189  RH  071%=      5-min Rain = 0
KTAS 262046Z 17015KT 25/19 A2997 RMK A01 T02450190  RH  071%=      5-min Rain = 0
KTAS 262047Z 17017KT 25/19 A2997 RMK A01 T02450190  RH  071%=      5-min Rain = 0
KTAS 262048Z 16016KT 25/19 A2997 RMK A01 T02450189  RH  071%=      5-min Rain = 0
KTAS 262049Z 16016KT 24/19 A2997 RMK A01 T02440188  RH  071%=      5-min Rain = 0
KTAS 262050Z 17015KT 25/19 A2997 RMK A01 T02450190  RH  071%=      5-min Rain = 0
KTAS 262051Z 16013KT 25/19 A2997 RMK A01 T02450191  RH  072%=      5-min Rain = 0
KTAS 262052Z 16013KT 25/19 A2997 RMK A01 T02450191  RH  072%=      5-min Rain = 0
KTAS 262053Z 16015KT 25/19 A2997 RMK A01 T02460191  RH  072%=      5-min Rain = 0
KTAS 262054Z 16016KT 25/19 A2997 RMK A01 T02460191  RH  071%=      5-min Rain = 0
KTAS 262055Z 16014G19KT 25/19 A2997 RMK A01 T02450191  RH  072%=      5-min Rain = 0
KTAS 262056Z 16016KT 25/19 A2997 RMK A01 T02450190  RH  071%=      5-min Rain = 0
KTAS 262057Z 16015KT 24/19 A2997 RMK A01 T02440190  RH  072%=      5-min Rain = 0
KTAS 262058Z 16015G20KT 24/19 A2997 RMK A01 T02440190  RH  072%=      5-min Rain = 0
KTAS 262059Z 16015KT 24/19 A2997 RMK A01 T02440189  RH  071%=      5-min Rain = 0
KTAS 262100Z 16017KT 24/19 A2997 RMK A01 T02440190  RH  072%=      5-min Rain = 0
KTAS 262101Z 16017KT 24/19 A2997 RMK A01 T02440189  RH  071%=      5-min Rain = 0
KTAS 262102Z 16014G19KT 24/19 A2997 RMK A01 T02430189  RH  072%=      5-min Rain = 0
KTAS 262103Z 15016KT 24/19 A2997 RMK A01 T02440190  RH  072%=      5-min Rain = 0
KTAS 262104Z 16015KT 24/19 A2997 RMK A01 T02440189  RH  072%=      5-min Rain = 0
KTAS 262105Z 15018KT 24/19 A2997 RMK A01 T02430189  RH  072%=      5-min Rain = 0
KTAS 262106Z 15016KT 24/19 A2996 RMK A01 T02430188  RH  071%=      5-min Rain = 0
KTAS 262107Z 15016KT 24/19 A2996 RMK A01 T02430189  RH  072%=      5-min Rain = 0
KTAS 262108Z 15015KT 24/19 A2996 RMK A01 T02430188  RH  071%=      5-min Rain = 0
KTAS 262109Z 16015KT 24/19 A2996 RMK A01 T02440189  RH  072%=      5-min Rain = 0
KTAS 262110Z 16014KT 24/19 A2996 RMK A01 T02440190  RH  072%=      5-min Rain = 0
KTAS 262111Z 15013G18KT 25/19 A2996 RMK A01 T02450190  RH  071%=      5-min Rain = 0
KTAS 262112Z 16015G20KT 25/19 A2996 RMK A01 T02450190  RH  072%=      5-min Rain = 0
KTAS 262113Z 15017KT 25/19 A2996 RMK A01 T02450189  RH  071%=      5-min Rain = 0
KTAS 262114Z 15017KT 25/19 A2996 RMK A01 T02450188  RH  070%=      5-min Rain = 0
KTAS 262115Z 15016KT 25/19 A2996 RMK A01 T02450189  RH  071%=      5-min Rain = 0
KTAS 262116Z 14015KT 25/19 A2995 RMK A01 T02450189  RH  071%=      5-min Rain = 0
KTAS 262117Z 14015KT 25/19 A2995 RMK A01 T02450191  RH  072%=      5-min Rain = 0
KTAS 262118Z 14016KT 25/19 A2995 RMK A01 T02450191  RH  072%=      5-min Rain = 0
KTAS 262119Z 14015KT 25/19 A2995 RMK A01 T02450192  RH  072%=      5-min Rain = 0
KTAS 262120Z 15016KT 25/19 A2995 RMK A01 T02450191  RH  072%=      5-min Rain = 0
KTAS 262121Z 15017KT 25/19 A2995 RMK A01 T02450192  RH  072%=      5-min Rain = 0
KTAS 262122Z 15014KT 25/19 A2995 RMK A01 T02450192  RH  072%=      5-min Rain = 0
KTAS 262123Z 15016G21KT 25/19 A2995 RMK A01 T02460194  RH  073%=      5-min Rain = 0
KTAS 262124Z 14016KT 25/19 A2995 RMK A01 T02460192  RH  072%=      5-min Rain = 0
KTAS 262125Z 14017KT 25/19 A2995 RMK A01 T02450191  RH  072%=      5-min Rain = 0
KTAS 262126Z 15016KT 25/19 A2995 RMK A01 T02450191  RH  072%=      5-min Rain = 0
KTAS 262127Z 15014G20KT 25/19 A2995 RMK A01 T02450192  RH  072%=      5-min Rain = 0
KTAS 262128Z 14016KT 25/19 A2995 RMK A01 T02450193  RH  072%=      5-min Rain = 0
KTAS 262129Z 14020KT 25/19 A2994 RMK A01 T02450191  RH  072%=      5-min Rain = 0
KTAS 262130Z 14021KT 25/19 A2994 RMK A01 T02450190  RH  071%=      5-min Rain = 0
KTAS 262131Z 14020KT 24/19 A2994 RMK A01 T02440190  RH  072%=      5-min Rain = 0
KTAS 262132Z 14019G24KT 24/19 A2993 RMK A01 T02440190  RH  072%=      5-min Rain = 0
KTAS 262133Z 14016G21KT 24/19 A2993 RMK A01 T02440191  RH  072%=      5-min Rain = 0
KTAS 262134Z 14020KT 24/19 A2993 RMK A01 T02430190  RH  072%=      5-min Rain = 0
KTAS 262135Z 14017G22KT 24/19 A2993 RMK A01 T02430189  RH  072%=      5-min Rain = 0
KTAS 262136Z 13016KT 24/19 A2993 RMK A01 T02430191  RH  072%=      5-min Rain = 0
KTAS 262137Z 13018G23KT 24/19 A2992 RMK A01 T02430191  RH  073%=      5-min Rain = 0
KTAS 262138Z 13019G24KT 24/19 A2992 RMK A01 T02430189  RH  072%=      5-min Rain = 0
KTAS 262139Z 13017KT 24/19 A2992 RMK A01 T02430190  RH  072%=      5-min Rain = 0
KTAS 262140Z 14017KT 24/19 A2992 RMK A01 T02430190  RH  072%=      5-min Rain = 0
KTAS 262141Z 14016KT 24/19 A2993 RMK A01 T02440189  RH  071%=      5-min Rain = 0
KTAS 262142Z 15017KT 25/19 A2993 RMK A01 T02450189  RH  071%=      5-min Rain = 0
KTAS 262143Z 15017KT 24/19 A2993 RMK A01 T02440188  RH  071%=      5-min Rain = 0
KTAS 262144Z 15016G22KT 25/19 A2993 RMK A01 T02450189  RH  071%=      5-min Rain = 0
KTAS 262145Z 15021KT 24/19 A2993 RMK A01 T02440188  RH  071%=      5-min Rain = 0
KTAS 262146Z 15020KT 24/19 A2993 RMK A01 T02440187  RH  070%=      5-min Rain = 0
KTAS 262147Z 15017G22KT 24/19 A2993 RMK A01 T02430187  RH  071%=      5-min Rain = 0
KTAS 262148Z 15020KT 24/19 A2994 RMK A01 T02430189  RH  072%=      5-min Rain = 0
KTAS 262149Z 16018G23KT 24/19 A2994 RMK A01 T02430189  RH  072%=      5-min Rain = 0
KTAS 262150Z 15019KT 24/19 A2994 RMK A01 T02430189  RH  072%=      5-min Rain = 0
KTAS 262151Z 15018KT 24/19 A2995 RMK A01 T02430189  RH  072%=      5-min Rain = 0
KTAS 262152Z 15017KT 24/19 A2995 RMK A01 T02430189  RH  072%=      5-min Rain = 0
KTAS 262153Z 16016KT 24/19 A2995 RMK A01 T02430189  RH  072%=      5-min Rain = 0
KTAS 262154Z 16018KT 24/19 A2995 RMK A01 T02430188  RH  071%=      5-min Rain = 0
KTAS 262155Z 17018KT 24/19 A2995 RMK A01 T02430188  RH  071%=      5-min Rain = 0
KTAS 262156Z 16019KT 24/19 A2994 RMK A01 T02430188  RH  072%=      5-min Rain = 0
KTAS 262157Z 15019G24KT 24/19 A2994 RMK A01 T02430188  RH  071%=      5-min Rain = 0
KTAS 262158Z 15019KT 24/19 A2994 RMK A01 T02430187  RH  071%=      5-min Rain = 0
KTAS 262159Z 16016KT 24/19 A2994 RMK A01 T02430188  RH  071%=      5-min Rain = 0
KTAS 262200Z 16015KT 24/19 A2993 RMK A01 T02430188  RH  072%=      5-min Rain = 0
KTAS 262201Z 16017KT 24/19 A2993 RMK A01 T02420188  RH  071%=      5-min Rain = 0
KTAS 262202Z 16019KT 24/19 A2993 RMK A01 T02430187  RH  071%=      5-min Rain = 0
KTAS 262203Z 16019KT 24/19 A2993 RMK A01 T02430187  RH  071%=      5-min Rain = 0
KTAS 262204Z 16021G26KT 24/19 A2993 RMK A01 T02430186  RH  070%=      5-min Rain = 0
KTAS 262205Z 16020KT 24/19 A2993 RMK A01 T02440186  RH  070%=      5-min Rain = 0
KTAS 262206Z 16020KT 24/19 A2994 RMK A01 T02440186  RH  070%=      5-min Rain = 0
KTAS 262207Z 16021KT 24/19 A2994 RMK A01 T02440185  RH  070%=      5-min Rain = 0
KTAS 262208Z 16021KT 25/19 A2994 RMK A01 T02450185  RH  069%=      5-min Rain = 0
KTAS 262209Z 16021G26KT 24/19 A2994 RMK A01 T02440186  RH  070%=      5-min Rain = 0
KTAS 262210Z 17021G26KT 24/19 A2994 RMK A01 T02440185  RH  070%=      5-min Rain = 0
KTAS 262211Z 17022KT 24/19 A2994 RMK A01 T02440185  RH  070%=      5-min Rain = 0
KTAS 262212Z 17019KT 24/19 A2994 RMK A01 T02430186  RH  070%=      5-min Rain = 0
KTAS 262213Z 16021KT 24/19 A2994 RMK A01 T02430186  RH  071%=      5-min Rain = 0
KTAS 262214Z 16023KT 24/19 A2994 RMK A01 T02430186  RH  071%=      5-min Rain = 0
KTAS 262215Z 17018G23KT 24/19 A2994 RMK A01 T02430186  RH  071%=      5-min Rain = 0
KTAS 262216Z 16021KT 24/19 A2993 RMK A01 T02420187  RH  071%=      5-min Rain = 0
KTAS 262217Z 17020KT 24/19 A2993 RMK A01 T02420186  RH  071%=      5-min Rain = 0
KTAS 262218Z 16019KT 24/19 A2993 RMK A01 T02420185  RH  071%=      5-min Rain = 0
KTAS 262219Z 16020KT 24/19 A2993 RMK A01 T02420185  RH  071%=      5-min Rain = 0
KTAS 262220Z 16021G26KT 24/19 A2992 RMK A01 T02420185  RH  070%=      5-min Rain = 0
KTAS 262221Z 16021G26KT 24/19 A2992 RMK A01 T02420185  RH  070%=      5-min Rain = 0
KTAS 262222Z 16019KT 24/19 A2992 RMK A01 T02430186  RH  071%=      5-min Rain = 0
KTAS 262223Z 16017G23KT 24/19 A2992 RMK A01 T02430187  RH  071%=      5-min Rain = 0
KTAS 262224Z 16017G23KT 24/19 A2993 RMK A01 T02420187  RH  071%=      5-min Rain = 0
KTAS 262225Z 16020KT 24/19 A2993 RMK A01 T02430186  RH  071%=      5-min Rain = 0
KTAS 262226Z 16018KT 24/19 A2993 RMK A01 T02430186  RH  070%=      5-min Rain = 0
KTAS 262227Z 17014KT 24/19 A2993 RMK A01 T02430187  RH  071%=      5-min Rain = 0
KTAS 262228Z 16016KT 24/19 A2993 RMK A01 T02430187  RH  071%=      5-min Rain = 0
KTAS 262229Z 17016KT 24/19 A2993 RMK A01 T02430187  RH  071%=      5-min Rain = 0
KTAS 262230Z 16016KT 24/19 A2993 RMK A01 T02430188  RH  071%=      5-min Rain = 0
KTAS 262231Z 16014KT 24/19 A2993 RMK A01 T02430187  RH  071%=      5-min Rain = 0
KTAS 262232Z 16019KT 24/19 A2993 RMK A01 T02430187  RH  071%=      5-min Rain = 0
KTAS 262233Z 16016KT 24/19 A2993 RMK A01 T02430187  RH  071%=      5-min Rain = 0
KTAS 262234Z 16020G25KT 24/19 A2992 RMK A01 T02430187  RH  071%=      5-min Rain = 0
KTAS 262235Z 16019KT 24/19 A2992 RMK A01 T02430186  RH  071%=      5-min Rain = 0
KTAS 262236Z 16017KT 24/19 A2991 RMK A01 T02430186  RH  071%=      5-min Rain = 0
KTAS 262237Z 15018KT 24/19 A2991 RMK A01 T02430186  RH  071%=      5-min Rain = 0
KTAS 262238Z 14018KT 24/19 A2991 RMK A01 T02430186  RH  071%=      5-min Rain = 0
KTAS 262239Z 15017KT 24/19 A2991 RMK A01 T02430186  RH  070%=      5-min Rain = 0
KTAS 262240Z 15018KT 24/19 A299 RMK A01 T02430186  RH  070%=      5-min Rain = 0
KTAS 262241Z 15015G20KT 24/19 A299 RMK A01 T02430187  RH  071%=      5-min Rain = 0
KTAS 262242Z 15018KT 24/19 A2989 RMK A01 T02430186  RH  071%=      5-min Rain = 0
KTAS 262243Z 14018G23KT 24/19 A2989 RMK A01 T02440186  RH  070%=      5-min Rain = 0
KTAS 262244Z 14017KT 24/19 A2989 RMK A01 T02440186  RH  070%=      5-min Rain = 0
KTAS 262245Z 14017KT 24/19 A2989 RMK A01 T02440187  RH  070%=      5-min Rain = 0
KTAS 262246Z 14014G21KT 24/19 A2989 RMK A01 T02440187  RH  070%=      5-min Rain = 0
KTAS 262247Z 14016KT 25/19 A2989 RMK A01 T02450189  RH  071%=      5-min Rain = 0
KTAS 262248Z 14016G21KT 25/19 A2989 RMK A01 T02450188  RH  071%=      5-min Rain = 0
KTAS 262249Z 14017KT 25/19 A2989 RMK A01 T02450187  RH  070%=      5-min Rain = 0
KTAS 262250Z 13016KT 25/19 A2989 RMK A01 T02450188  RH  070%=      5-min Rain = 0
KTAS 262251Z 14018KT 25/19 A2989 RMK A01 T02450188  RH  070%=      5-min Rain = 0
KTAS 262252Z 14017KT 25/19 A2989 RMK A01 T02450187  RH  070%=      5-min Rain = 0
KTAS 262253Z 13018KT 25/19 A2988 RMK A01 T02450188  RH  070%=      5-min Rain = 0
KTAS 262254Z 13016KT 25/19 A2988 RMK A01 T02450188  RH  070%=      5-min Rain = 0
KTAS 262255Z 14019KT 25/19 A2988 RMK A01 T02450188  RH  071%=      5-min Rain = 0
KTAS 262256Z 14019G25KT 25/19 A2988 RMK A01 T02450188  RH  070%=      5-min Rain = 0
KTAS 262257Z 14021KT 25/19 A2987 RMK A01 T02450188  RH  070%=      5-min Rain = 0
KTAS 262258Z 13018KT 25/19 A2987 RMK A01 T02450188  RH  071%=      5-min Rain = 0
KTAS 262259Z 13020KT 25/19 A2987 RMK A01 T02450188  RH  070%=      5-min Rain = 0
KTAS 262300Z 13018G24KT 25/19 A2987 RMK A01 T02450188  RH  070%=      5-min Rain = 0
KTAS 262301Z 13018G24KT 25/19 A2987 RMK A01 T02450188  RH  070%=      5-min Rain = 0
KTAS 262302Z 13018KT 25/19 A2987 RMK A01 T02450189  RH  071%=      5-min Rain = 0
KTAS 262303Z 13018KT 25/19 A2987 RMK A01 T02450189  RH  071%=      5-min Rain = 0
KTAS 262304Z 13015G20KT 25/19 A2987 RMK A01 T02450190  RH  071%=      5-min Rain = 0
KTAS 262305Z 13019G24KT 25/19 A2987 RMK A01 T02450189  RH  071%=      5-min Rain = 0
KTAS 262306Z 13018G25KT 25/19 A2987 RMK A01 T02450188  RH  071%=      5-min Rain = 0
KTAS 262307Z 13014KT 25/19 A2988 RMK A01 T02460189  RH  071%=      5-min Rain = 0
KTAS 262308Z 13016KT 25/19 A2988 RMK A01 T02460189  RH  071%=      5-min Rain = 0
KTAS 262309Z 13019KT 25/19 A2988 RMK A01 T02460189  RH  071%=      5-min Rain = 0
KTAS 262310Z 13016KT 25/19 A2988 RMK A01 T02460189  RH  071%=      5-min Rain = 0
KTAS 262311Z 14020KT 25/19 A2989 RMK A01 T02470189  RH  071%=      5-min Rain = 0
KTAS 262312Z 14015KT 25/19 A2989 RMK A01 T02460190  RH  071%=      5-min Rain = 0
KTAS 262313Z 14013G19KT 25/19 A2989 RMK A01 T02470191  RH  071%=      5-min Rain = 0
KTAS 262314Z 14014KT 25/19 A2989 RMK A01 T02470191  RH  071%=      5-min Rain = 0
KTAS 262315Z 14017G23KT 25/19 A2989 RMK A01 T02470190  RH  071%=      5-min Rain = 0
KTAS 262316Z 13019KT 25/19 A2989 RMK A01 T02470190  RH  071%=      5-min Rain = 0
KTAS 262317Z 14019KT 25/19 A2989 RMK A01 T02460189  RH  070%=      5-min Rain = 0
KTAS 262318Z 14017KT 25/19 A2989 RMK A01 T02470190  RH  071%=      5-min Rain = 0
KTAS 262319Z 14014KT 25/19 A2989 RMK A01 T02470191  RH  071%=      5-min Rain = 0
KTAS 262320Z 14016KT 25/19 A2989 RMK A01 T02490192  RH  071%=      5-min Rain = 0
KTAS 262321Z 14016KT 25/19 A2989 RMK A01 T02500192  RH  070%=      5-min Rain = 0
KTAS 262322Z 14019KT 25/19 A2989 RMK A01 T02500191  RH  070%=      5-min Rain = 0
KTAS 262323Z 13020G25KT 25/19 A2989 RMK A01 T02490190  RH  070%=      5-min Rain = 0
KTAS 262324Z 14018KT 25/19 A2989 RMK A01 T02480190  RH  070%=      5-min Rain = 0
KTAS 262325Z 14016KT 25/19 A2989 RMK A01 T02480191  RH  070%=      5-min Rain = 0
KTAS 262326Z 15017G22KT 25/19 A2989 RMK A01 T02480191  RH  070%=      5-min Rain = 0
KTAS 262327Z 15018KT 25/19 A2989 RMK A01 T02480190  RH  070%=      5-min Rain = 0
KTAS 262328Z 15016G21KT 25/19 A2989 RMK A01 T02480189  RH  070%=      5-min Rain = 0
KTAS 262329Z 14019KT 25/19 A2989 RMK A01 T02480189  RH  070%=      5-min Rain = 0
KTAS 262330Z 14018KT 25/19 A2988 RMK A01 T02480189  RH  070%=      5-min Rain = 0
KTAS 262331Z 14016KT 25/19 A2988 RMK A01 T02480189  RH  070%=      5-min Rain = 0
KTAS 262332Z 14016KT 25/19 A2988 RMK A01 T02480189  RH  070%=      5-min Rain = 0
KTAS 262333Z 13014G21KT 25/19 A2988 RMK A01 T02470190  RH  070%=      5-min Rain = 0
KTAS 262334Z 14016G22KT 25/19 A2988 RMK A01 T02470188  RH  070%=      5-min Rain = 0
KTAS 262335Z 14018G23KT 25/19 A2988 RMK A01 T02470187  RH  069%=      5-min Rain = 0
KTAS 262336Z 14016KT 25/19 A2988 RMK A01 T02470188  RH  070%=      5-min Rain = 0
KTAS 262337Z 14017KT 25/19 A2988 RMK A01 T02460187  RH  069%=      5-min Rain = 0
KTAS 262338Z 15013KT 25/19 A2988 RMK A01 T02460187  RH  070%=      5-min Rain = 0
KTAS 262339Z 15014KT 25/19 A2989 RMK A01 T02460188  RH  070%=      5-min Rain = 0
KTAS 262340Z 15014KT 25/19 A2989 RMK A01 T02460187  RH  070%=      5-min Rain = 0
KTAS 262341Z 15012KT 25/19 A2989 RMK A01 T02460187  RH  070%=      5-min Rain = 0
KTAS 262342Z 15016G22KT 25/19 A2989 RMK A01 T02460188  RH  070%=      5-min Rain = 0
KTAS 262343Z 15016KT 25/19 A2989 RMK A01 T02470188  RH  070%=      5-min Rain = 0
KTAS 262344Z 16016KT 25/19 A299 RMK A01 T02480188  RH  069%=      5-min Rain = 0
KTAS 262345Z 16017KT 25/19 A299 RMK A01 T02480188  RH  069%=      5-min Rain = 0
KTAS 262346Z 16017KT 25/19 A299 RMK A01 T02480187  RH  069%=      5-min Rain = 0
KTAS 262347Z 16018KT 25/19 A2991 RMK A01 T02480187  RH  069%=      5-min Rain = 0
KTAS 262348Z 16017KT 25/19 A2991 RMK A01 T02480188  RH  069%=      5-min Rain = 0
KTAS 262349Z 15019KT 25/19 A2991 RMK A01 T02480187  RH  069%=      5-min Rain = 0
KTAS 262350Z 16019KT 25/19 A2991 RMK A01 T02480186  RH  068%=      5-min Rain = 0
KTAS 262351Z 16020G25KT 25/19 A2991 RMK A01 T02490187  RH  069%=      5-min Rain = 0
KTAS 262352Z 16019KT 25/19 A299 RMK A01 T02500188  RH  068%=      5-min Rain = 0
KTAS 262353Z 16016KT 25/19 A299 RMK A01 T02520189  RH  068%=      5-min Rain = 0
KTAS 262354Z 16017KT 25/19 A299 RMK A01 T02540189  RH  068%=      5-min Rain = 0
KTAS 262355Z 15020KT 25/19 A299 RMK A01 T02540188  RH  067%=      5-min Rain = 0
KTAS 262356Z 16021G26KT 25/19 A299 RMK A01 T02540187  RH  066%=      5-min Rain = 0
KTAS 262357Z 16022KT 25/19 A2991 RMK A01 T02540186  RH  066%=      5-min Rain = 0
KTAS 262358Z 15019G24KT 25/19 A299 RMK A01 T02540187  RH  066%=      5-min Rain = 0
KTAS 262359Z 15021KT 25/19 A299 RMK A01 T02530186  RH  066%=      5-min Rain = 0
KTAS 270000Z 16021KT 25/19 A299 RMK A01 T02540186  RH  066%=      5-min Rain = 0
KTAS 270001Z 16022KT 25/19 A299 RMK A01 T02540186  RH  066%=      5-min Rain = 0
KTAS 270002Z 16019KT 25/19 A299 RMK A01 T02530185  RH  066%=      5-min Rain = 0
KTAS 270003Z 16021KT 25/19 A299 RMK A01 T02530186  RH  066%=      5-min Rain = 0
KTAS 270004Z 17021G26KT 25/19 A299 RMK A01 T02530185  RH  066%=      5-min Rain = 0
KTAS 270005Z 17018KT 25/19 A299 RMK A01 T02520185  RH  066%=      5-min Rain = 0
KTAS 270006Z 16017KT 25/19 A299 RMK A01 T02510186  RH  067%=      5-min Rain = 0
KTAS 270007Z 16016KT 25/19 A299 RMK A01 T02510186  RH  067%=      5-min Rain = 0
KTAS 270008Z 16019KT 25/19 A299 RMK A01 T02510186  RH  067%=      5-min Rain = 0
KTAS 270009Z 16016G21KT 25/19 A299 RMK A01 T02510186  RH  067%=      5-min Rain = 0
KTAS 270010Z 15020G26KT 25/19 A299 RMK A01 T02510185  RH  067%=      5-min Rain = 0
KTAS 270011Z 16021KT 25/18 A299 RMK A01 T02510184  RH  066%=      5-min Rain = 0
KTAS 270012Z 16019KT 25/18 A299 RMK A01 T02500184  RH  066%=      5-min Rain = 0
KTAS 270013Z 16020KT 25/18 A299 RMK A01 T02500184  RH  067%=      5-min Rain = 0
KTAS 270014Z 16018G24KT 25/18 A299 RMK A01 T02500184  RH  067%=      5-min Rain = 0
KTAS 270015Z 16018KT 25/19 A299 RMK A01 T02490185  RH  067%=      5-min Rain = 0
KTAS 270016Z 16021KT 25/18 A299 RMK A01 T02500184  RH  067%=      5-min Rain = 0
KTAS 270017Z 17021KT 25/18 A299 RMK A01 T02500184  RH  067%=      5-min Rain = 0
KTAS 270018Z 17019KT 25/18 A299 RMK A01 T02500184  RH  067%=      5-min Rain = 0
KTAS 270019Z 17020KT 25/18 A299 RMK A01 T02500184  RH  067%=      5-min Rain = 0
KTAS 270020Z 17021G26KT 25/19 A299 RMK A01 T02500185  RH  067%=      5-min Rain = 0
KTAS 270021Z 17021G26KT 25/18 A299 RMK A01 T02500183  RH  066%=      5-min Rain = 0
KTAS 270022Z 17024G30KT 25/18 A299 RMK A01 T02500183  RH  066%=      5-min Rain = 0
KTAS 270023Z 17023KT 25/18 A2989 RMK A01 T02500182  RH  066%=      5-min Rain = 0
KTAS 270024Z 17022KT 25/18 A2989 RMK A01 T02490182  RH  066%=      5-min Rain = 0
KTAS 270025Z 17023G28KT 25/18 A2989 RMK A01 T02490182  RH  066%=      5-min Rain = 0
KTAS 270026Z 17023G28KT 25/18 A2989 RMK A01 T02500182  RH  066%=      5-min Rain = 0
KTAS 270027Z 16022KT 25/18 A2989 RMK A01 T02500182  RH  066%=      5-min Rain = 0
KTAS 270028Z 16021G26KT 25/18 A2989 RMK A01 T02500182  RH  066%=      5-min Rain = 0
KTAS 270029Z 16020G25KT 25/18 A2989 RMK A01 T02490182  RH  066%=      5-min Rain = 0
KTAS 270030Z 16022KT 25/18 A2989 RMK A01 T02490182  RH  066%=      5-min Rain = 0
KTAS 270031Z 17018KT 25/18 A2989 RMK A01 T02490183  RH  067%=      5-min Rain = 0
KTAS 270032Z 16018G24KT 25/18 A2989 RMK A01 T02490183  RH  067%=      5-min Rain = 0
KTAS 270033Z 15019G27KT 25/18 A2989 RMK A01 T02500183  RH  066%=      5-min Rain = 0
KTAS 270034Z 16021KT 25/18 A2989 RMK A01 T02510183  RH  066%=      5-min Rain = 0
KTAS 270035Z 16024KT 25/18 A2989 RMK A01 T02520182  RH  065%=      5-min Rain = 0
KTAS 270036Z 15022KT 25/18 A2989 RMK A01 T02510181  RH  065%=      5-min Rain = 0
KTAS 270037Z 16019KT 25/18 A2989 RMK A01 T02500182  RH  066%=      5-min Rain = 0
KTAS 270038Z 16017G23KT 25/18 A2989 RMK A01 T02490182  RH  066%=      5-min Rain = 0
KTAS 270039Z 16021KT 25/18 A2989 RMK A01 T02480182  RH  067%=      5-min Rain = 0
KTAS 270040Z 16018G23KT 25/18 A2989 RMK A01 T02470182  RH  067%=      5-min Rain = 0
KTAS 270041Z 16016G21KT 25/18 A2989 RMK A01 T02470183  RH  067%=      5-min Rain = 0
KTAS 270042Z 16017KT 25/18 A2989 RMK A01 T02470182  RH  067%=      5-min Rain = 0
KTAS 270043Z 16022G27KT 25/18 A2989 RMK A01 T02470181  RH  067%=      5-min Rain = 0
KTAS 270044Z 16020KT 25/18 A2989 RMK A01 T02460180  RH  067%=      5-min Rain = 0
KTAS 270045Z 16021G26KT 25/18 A2989 RMK A01 T02460181  RH  067%=      5-min Rain = 0
KTAS 270046Z 16021KT 25/18 A2988 RMK A01 T02460180  RH  067%=      5-min Rain = 0
KTAS 270047Z 16023KT 25/18 A2988 RMK A01 T02460181  RH  067%=      5-min Rain = 0
KTAS 270048Z 16023KT 25/18 A2988 RMK A01 T02470180  RH  066%=      5-min Rain = 0
KTAS 270049Z 15019KT 25/18 A2988 RMK A01 T02470181  RH  067%=      5-min Rain = 0
KTAS 270050Z 16022G28KT 25/18 A2988 RMK A01 T02470181  RH  066%=      5-min Rain = 0
KTAS 270051Z 15020KT 25/18 A2988 RMK A01 T02470180  RH  066%=      5-min Rain = 0
KTAS 270052Z 15021KT 25/18 A2988 RMK A01 T02470180  RH  066%=      5-min Rain = 0
KTAS 270053Z 16021KT 25/18 A2988 RMK A01 T02460180  RH  067%=      5-min Rain = 0
KTAS 270054Z 15019KT 25/18 A2988 RMK A01 T02460180  RH  067%=      5-min Rain = 0
KTAS 270055Z 15019G24KT 25/18 A2988 RMK A01 T02460181  RH  067%=      5-min Rain = 0
KTAS 270056Z 15022KT 25/18 A2988 RMK A01 T02460180  RH  067%=      5-min Rain = 0
KTAS 270057Z 15022KT 25/18 A2988 RMK A01 T02450179  RH  067%=      5-min Rain = 0
KTAS 270058Z 15023KT 25/18 A2988 RMK A01 T02460180  RH  067%=      5-min Rain = 0
KTAS 270059Z 15021G26KT 25/18 A2988 RMK A01 T02460179  RH  066%=      5-min Rain = 0
KTAS 270100Z 15018KT 25/18 A2988 RMK A01 T02460180  RH  067%=      5-min Rain = 0
KTAS 270101Z 15015KT 25/18 A2988 RMK A01 T02460181  RH  067%=      5-min Rain = 0
KTAS 270102Z 15015KT 25/18 A2988 RMK A01 T02450182  RH  068%=      5-min Rain = 0
KTAS 270103Z 15015KT 25/18 A2987 RMK A01 T02450182  RH  068%=      5-min Rain = 0
KTAS 270104Z 16019KT 24/18 A2987 RMK A01 T02440181  RH  068%=      5-min Rain = 0
KTAS 270105Z 15018G24KT 24/18 A2987 RMK A01 T02440181  RH  068%=      5-min Rain = 0
KTAS 270106Z 15020KT 24/18 A2987 RMK A01 T02440180  RH  067%=      5-min Rain = 0
KTAS 270107Z 16017G22KT 25/18 A2987 RMK A01 T02450181  RH  067%=      5-min Rain = 0
KTAS 270108Z 15021KT 24/18 A2987 RMK A01 T02440180  RH  068%=      5-min Rain = 0
KTAS 270109Z 15018KT 24/18 A2987 RMK A01 T02440180  RH  068%=      5-min Rain = 0
KTAS 270110Z 15016G22KT 24/18 A2987 RMK A01 T02440181  RH  068%=      5-min Rain = 0
KTAS 270111Z 16015G20KT 24/18 A2987 RMK A01 T02430181  RH  068%=      5-min Rain = 0
KTAS 270112Z 15015KT 24/18 A2987 RMK A01 T02430181  RH  068%=      5-min Rain = 0
KTAS 270113Z 15017KT 24/18 A2987 RMK A01 T02430181  RH  068%=      5-min Rain = 0
KTAS 270114Z 15018KT 24/18 A2987 RMK A01 T02430180  RH  068%=      5-min Rain = 0
KTAS 270115Z 15016KT 24/18 A2987 RMK A01 T02430180  RH  068%=      5-min Rain = 0
KTAS 270116Z 15015KT 24/18 A2987 RMK A01 T02420181  RH  068%=      5-min Rain = 0
KTAS 270117Z 15016G21KT 24/18 A2987 RMK A01 T02420181  RH  069%=      5-min Rain = 0
KTAS 270118Z 15016KT 24/18 A2987 RMK A01 T02420180  RH  068%=      5-min Rain = 0
KTAS 270119Z 15015KT 24/18 A2987 RMK A01 T02420180  RH  069%=      5-min Rain = 0
KTAS 270120Z 15015KT 24/18 A2987 RMK A01 T02410180  RH  069%=      5-min Rain = 0
KTAS 270121Z 15016KT 24/18 A2987 RMK A01 T02410180  RH  069%=      5-min Rain = 0
KTAS 270122Z 15015KT 24/18 A2987 RMK A01 T02400180  RH  069%=      5-min Rain = 0
KTAS 270123Z 15020KT 24/18 A2987 RMK A01 T02400180  RH  069%=      5-min Rain = 0
KTAS 270124Z 15020KT 24/18 A2987 RMK A01 T02400179  RH  069%=      5-min Rain = 0
KTAS 270125Z 15020KT 24/18 A2987 RMK A01 T02400179  RH  069%=      5-min Rain = 0
KTAS 270126Z 15021KT 24/18 A2987 RMK A01 T02400179  RH  069%=      5-min Rain = 0
KTAS 270127Z 15019KT 24/18 A2987 RMK A01 T02400179  RH  069%=      5-min Rain = 0
KTAS 270128Z 15019KT 24/18 A2986 RMK A01 T02390179  RH  069%=      5-min Rain = 0
KTAS 270129Z 15020KT 24/18 A2986 RMK A01 T02400179  RH  069%=      5-min Rain = 0
KTAS 270130Z 15015KT 24/18 A2986 RMK A01 T02400180  RH  069%=      5-min Rain = 0
KTAS 270131Z 15017KT 24/18 A2986 RMK A01 T02380180  RH  070%=      5-min Rain = 0
KTAS 270132Z 15019G25KT 24/18 A2986 RMK A01 T02380179  RH  070%=      5-min Rain = 0
KTAS 270133Z 15021KT 24/18 A2986 RMK A01 T02380179  RH  069%=      5-min Rain = 0
KTAS 270134Z 15019KT 24/18 A2986 RMK A01 T02390179  RH  069%=      5-min Rain = 0
KTAS 270135Z 15016G21KT 24/18 A2986 RMK A01 T02390179  RH  069%=      5-min Rain = 0
KTAS 270136Z 15016KT 24/18 A2986 RMK A01 T02380179  RH  070%=      5-min Rain = 0
KTAS 270137Z 15020KT 24/18 A2986 RMK A01 T02370179  RH  070%=      5-min Rain = 0
KTAS 270138Z 15018KT 24/18 A2986 RMK A01 T02370179  RH  070%=      5-min Rain = 0
KTAS 270139Z 15019KT 24/18 A2987 RMK A01 T02370179  RH  070%=      5-min Rain = 0
KTAS 270140Z 15018KT 24/18 A2987 RMK A01 T02380179  RH  070%=      5-min Rain = 0
KTAS 270141Z 15018KT 24/18 A2986 RMK A01 T02370179  RH  070%=      5-min Rain = 0
KTAS 270142Z 16019KT 24/18 A2986 RMK A01 T02370179  RH  070%=      5-min Rain = 0
KTAS 270143Z 15018KT 24/18 A2986 RMK A01 T02370179  RH  070%=      5-min Rain = 0
KTAS 270144Z 16017KT 24/18 A2986 RMK A01 T02370179  RH  070%=      5-min Rain = 0
KTAS 270145Z 15014KT 24/18 A2986 RMK A01 T02360179  RH  070%=      5-min Rain = 0
KTAS 270146Z 16017G22KT 24/18 A2986 RMK A01 T02350179  RH  071%=      5-min Rain = 0
KTAS 270147Z 15017KT 24/18 A2986 RMK A01 T02350179  RH  071%=      5-min Rain = 0
KTAS 270148Z 16018KT 24/18 A2987 RMK A01 T02350179  RH  071%=      5-min Rain = 0
KTAS 270149Z 16017KT 24/18 A2986 RMK A01 T02350179  RH  071%=      5-min Rain = 0
KTAS 270150Z 15015KT 23/18 A2986 RMK A01 T02340179  RH  071%=      5-min Rain = 0
KTAS 270151Z 16017KT 23/18 A2986 RMK A01 T02340179  RH  071%=      5-min Rain = 0
KTAS 270152Z 16018KT 24/18 A2986 RMK A01 T02350179  RH  071%=      5-min Rain = 0
KTAS 270153Z 16016G21KT 24/18 A2986 RMK A01 T02350179  RH  071%=      5-min Rain = 0
KTAS 270154Z 15015KT 23/18 A2986 RMK A01 T02340179  RH  071%=      5-min Rain = 0
KTAS 270155Z 16014KT 23/18 A2986 RMK A01 T02330179  RH  072%=      5-min Rain = 0
KTAS 270156Z 15015G21KT 23/18 A2986 RMK A01 T02330179  RH  072%=      5-min Rain = 0
KTAS 270157Z 16016KT 23/18 A2986 RMK A01 T02330179  RH  072%=      5-min Rain = 0
KTAS 270158Z 15018G23KT 23/18 A2986 RMK A01 T02330179  RH  072%=      5-min Rain = 0
KTAS 270159Z 16016KT 23/18 A2986 RMK A01 T02330179  RH  072%=      5-min Rain = 0
KTAS 270200Z 15016G21KT 23/18 A2987 RMK A01 T02330179  RH  072%=      5-min Rain = 0
KTAS 270201Z 16017KT 23/18 A2987 RMK A01 T02330179  RH  072%=      5-min Rain = 0
KTAS 270202Z 16015KT 23/18 A2987 RMK A01 T02330179  RH  072%=      5-min Rain = 0
KTAS 270203Z 15016KT 23/18 A2987 RMK A01 T02330179  RH  072%=      5-min Rain = 0
KTAS 270204Z 16018KT 23/18 A2987 RMK A01 T02320179  RH  072%=      5-min Rain = 0
KTAS 270205Z 16016KT 23/18 A2987 RMK A01 T02330179  RH  072%=      5-min Rain = 0
KTAS 270206Z 16015KT 23/18 A2987 RMK A01 T02330179  RH  072%=      5-min Rain = 0
KTAS 270207Z 16016KT 23/18 A2987 RMK A01 T02330179  RH  072%=      5-min Rain = 0
KTAS 270208Z 16014KT 23/18 A2987 RMK A01 T02330179  RH  072%=      5-min Rain = 0
KTAS 270209Z 16016KT 23/18 A2987 RMK A01 T02330179  RH  072%=      5-min Rain = 0
KTAS 270210Z 16016KT 23/18 A2987 RMK A01 T02320179  RH  072%=      5-min Rain = 0
KTAS 270211Z 16016G24KT 23/18 A2987 RMK A01 T02320179  RH  072%=      5-min Rain = 0
KTAS 270212Z 16016KT 23/18 A2987 RMK A01 T02320179  RH  072%=      5-min Rain = 0
KTAS 270213Z 16015KT 23/18 A2987 RMK A01 T02320179  RH  072%=      5-min Rain = 0
KTAS 270214Z 16015KT 23/18 A2987 RMK A01 T02320179  RH  072%=      5-min Rain = 0
KTAS 270215Z 16016KT 23/18 A2987 RMK A01 T02320179  RH  072%=      5-min Rain = 0
KTAS 270216Z 16017G22KT 23/18 A2987 RMK A01 T02320179  RH  072%=      5-min Rain = 0
KTAS 270217Z 16018KT 23/18 A2988 RMK A01 T02330179  RH  071%=      5-min Rain = 0
KTAS 270218Z 16020KT 23/18 A2988 RMK A01 T02330179  RH  071%=      5-min Rain = 0
KTAS 270219Z 16017KT 23/18 A2988 RMK A01 T02340179  RH  071%=      5-min Rain = 0
KTAS 270220Z 16014KT 23/18 A2988 RMK A01 T02330179  RH  071%=      5-min Rain = 0
KTAS 270221Z 16015KT 23/18 A2988 RMK A01 T02320179  RH  072%=      5-min Rain = 0
KTAS 270222Z 16017G22KT 23/18 A2988 RMK A01 T02320178  RH  072%=      5-min Rain = 0
KTAS 270223Z 16016KT 23/18 A2988 RMK A01 T02330178  RH  071%=      5-min Rain = 0
KTAS 270224Z 16015KT 23/18 A2988 RMK A01 T02320178  RH  072%=      5-min Rain = 0
KTAS 270225Z 16016KT 23/18 A2988 RMK A01 T02320178  RH  072%=      5-min Rain = 0
KTAS 270226Z 16018KT 23/18 A2988 RMK A01 T02320178  RH  072%=      5-min Rain = 0
KTAS 270227Z 16017KT 23/18 A2988 RMK A01 T02320178  RH  071%=      5-min Rain = 0
KTAS 270228Z 16013G18KT 23/18 A2988 RMK A01 T02330178  RH  071%=      5-min Rain = 0
KTAS 270229Z 16014KT 23/18 A2988 RMK A01 T02310178  RH  072%=      5-min Rain = 0
KTAS 270230Z 16016KT 23/18 A2988 RMK A01 T02300178  RH  072%=      5-min Rain = 0
KTAS 270231Z 16017G22KT 23/18 A2988 RMK A01 T02310178  RH  072%=      5-min Rain = 0
KTAS 270232Z 16018KT 23/18 A2988 RMK A01 T02320177  RH  071%=      5-min Rain = 0
KTAS 270233Z 16016KT 23/18 A2988 RMK A01 T02320177  RH  071%=      5-min Rain = 0
KTAS 270234Z 17015KT 23/18 A2988 RMK A01 T02320178  RH  072%=      5-min Rain = 0
KTAS 270235Z 16014KT 23/18 A2988 RMK A01 T02310177  RH  072%=      5-min Rain = 0
KTAS 270236Z 16015KT 23/18 A2988 RMK A01 T02300177  RH  072%=      5-min Rain = 0
KTAS 270237Z 16013KT 23/18 A2989 RMK A01 T02310177  RH  072%=      5-min Rain = 0
KTAS 270238Z 16016KT 23/18 A2989 RMK A01 T02300177  RH  072%=      5-min Rain = 0
KTAS 270239Z 17017KT 23/18 A2989 RMK A01 T02300177  RH  072%=      5-min Rain = 0
KTAS 270240Z 16016KT 23/18 A2989 RMK A01 T02310177  RH  072%=      5-min Rain = 0
KTAS 270241Z 17018KT 23/18 A2989 RMK A01 T02310177  RH  071%=      5-min Rain = 0
KTAS 270242Z 16015G20KT 23/18 A2988 RMK A01 T02310176  RH  071%=      5-min Rain = 0
KTAS 270243Z 16016KT 23/18 A2988 RMK A01 T02310176  RH  071%=      5-min Rain = 0
KTAS 270244Z 16015KT 23/18 A2988 RMK A01 T02310176  RH  071%=      5-min Rain = 0
KTAS 270245Z 16017KT 23/18 A2988 RMK A01 T02300176  RH  071%=      5-min Rain = 0
KTAS 270246Z 17015KT 23/18 A2988 RMK A01 T02310176  RH  071%=      5-min Rain = 0
KTAS 270247Z 16014KT 23/18 A2988 RMK A01 T02300176  RH  072%=      5-min Rain = 0
KTAS 270248Z 16014KT 23/18 A2988 RMK A01 T02290176  RH  072%=      5-min Rain = 0
KTAS 270249Z 16014KT 23/18 A2988 RMK A01 T02290176  RH  072%=      5-min Rain = 0
KTAS 270250Z 16017KT 23/18 A2988 RMK A01 T02280176  RH  072%=      5-min Rain = 0
KTAS 270251Z 16016G22KT 23/18 A2988 RMK A01 T02290176  RH  072%=      5-min Rain = 0
KTAS 270252Z 16016KT 23/18 A2988 RMK A01 T02290176  RH  072%=      5-min Rain = 0
KTAS 270253Z 17014KT 23/18 A2988 RMK A01 T02290176  RH  072%=      5-min Rain = 0
KTAS 270254Z 16012KT 23/18 A2988 RMK A01 T02290176  RH  072%=      5-min Rain = 0
KTAS 270255Z 17013KT 23/18 A2988 RMK A01 T02280176  RH  072%=      5-min Rain = 0
KTAS 270256Z 16014G20KT 23/18 A2989 RMK A01 T02270176  RH  073%=      5-min Rain = 0
KTAS 270257Z 17016KT 23/18 A2989 RMK A01 T02270175  RH  073%=      5-min Rain = 0
KTAS 270258Z 16015KT 23/18 A2989 RMK A01 T02280175  RH  072%=      5-min Rain = 0
KTAS 270259Z 16014KT 23/18 A2989 RMK A01 T02280175  RH  072%=      5-min Rain = 0
KTAS 270300Z 16015KT 23/18 A2989 RMK A01 T02280175  RH  072%=      5-min Rain = 0
KTAS 270301Z 16013KT 23/18 A2989 RMK A01 T02280176  RH  072%=      5-min Rain = 0
KTAS 270302Z 16013KT 23/18 A2989 RMK A01 T02280175  RH  072%=      5-min Rain = 0
KTAS 270303Z 16013KT 23/18 A2989 RMK A01 T02270176  RH  073%=      5-min Rain = 0
KTAS 270304Z 16014KT 23/18 A2989 RMK A01 T02270175  RH  073%=      5-min Rain = 0
KTAS 270305Z 16012KT 23/18 A2989 RMK A01 T02270175  RH  073%=      5-min Rain = 0
KTAS 270306Z 16013KT 23/18 A2989 RMK A01 T02260176  RH  073%=      5-min Rain = 0
KTAS 270307Z 16014KT 23/18 A2989 RMK A01 T02260175  RH  073%=      5-min Rain = 0
KTAS 270308Z 16014KT 23/18 A2989 RMK A01 T02260175  RH  073%=      5-min Rain = 0
KTAS 270309Z 16015G20KT 23/18 A2989 RMK A01 T02260175  RH  073%=      5-min Rain = 0
KTAS 270310Z 16015KT 23/18 A2989 RMK A01 T02270175  RH  072%=      5-min Rain = 0
KTAS 270311Z 16014KT 23/18 A2989 RMK A01 T02270175  RH  072%=      5-min Rain = 0
KTAS 270312Z 16014KT 23/18 A2989 RMK A01 T02270175  RH  072%=      5-min Rain = 0
KTAS 270313Z 16016G22KT 23/18 A2989 RMK A01 T02270175  RH  072%=      5-min Rain = 0
KTAS 270314Z 16012KT 23/18 A2989 RMK A01 T02270175  RH  073%=      5-min Rain = 0
KTAS 270315Z 16013KT 23/18 A2989 RMK A01 T02260175  RH  073%=      5-min Rain = 0
KTAS 270316Z 16013KT 23/18 A2989 RMK A01 T02250175  RH  073%=      5-min Rain = 0
KTAS 270317Z 16013G19KT 23/18 A2989 RMK A01 T02250175  RH  073%=      5-min Rain = 0
KTAS 270318Z 16014KT 23/18 A2989 RMK A01 T02250175  RH  073%=      5-min Rain = 0
KTAS 270319Z 16011KT 23/18 A2989 RMK A01 T02250175  RH  073%=      5-min Rain = 0
KTAS 270320Z 16013KT 22/18 A2989 RMK A01 T02240175  RH  074%=      5-min Rain = 0
KTAS 270321Z 16014KT 22/18 A2989 RMK A01 T02240175  RH  073%=      5-min Rain = 0
KTAS 270322Z 16013KT 22/17 A2989 RMK A01 T02240174  RH  073%=      5-min Rain = 0
KTAS 270323Z 16016KT 22/17 A2989 RMK A01 T02240174  RH  073%=      5-min Rain = 0
KTAS 270324Z 16014KT 23/17 A2989 RMK A01 T02250174  RH  073%=      5-min Rain = 0
KTAS 270325Z 16015KT 23/17 A2989 RMK A01 T02260174  RH  073%=      5-min Rain = 0
KTAS 270326Z 16015KT 23/18 A2989 RMK A01 T02260175  RH  072%=      5-min Rain = 0
KTAS 270327Z 16015KT 23/17 A2989 RMK A01 T02260174  RH  073%=      5-min Rain = 0
KTAS 270328Z 16014KT 23/17 A2989 RMK A01 T02250174  RH  073%=      5-min Rain = 0
KTAS 270329Z 16013KT 23/17 A2989 RMK A01 T02250174  RH  073%=      5-min Rain = 0
KTAS 270330Z 16015KT 23/17 A2989 RMK A01 T02250174  RH  073%=      5-min Rain = 0
KTAS 270331Z 16015KT 23/17 A2989 RMK A01 T02250174  RH  073%=      5-min Rain = 0
KTAS 270332Z 16013KT 23/17 A2989 RMK A01 T02250174  RH  073%=      5-min Rain = 0
KTAS 270333Z 16013KT 23/17 A2989 RMK A01 T02250174  RH  073%=      5-min Rain = 0
KTAS 270334Z 16014KT 22/17 A2989 RMK A01 T02240174  RH  073%=      5-min Rain = 0
KTAS 270335Z 16014KT 23/17 A2989 RMK A01 T02250174  RH  073%=      5-min Rain = 0
KTAS 270336Z 16016KT 22/17 A2989 RMK A01 T02240174  RH  073%=      5-min Rain = 0
KTAS 270337Z 16013G18KT 23/17 A2989 RMK A01 T02250174  RH  073%=      5-min Rain = 0
KTAS 270338Z 16014KT 22/17 A2989 RMK A01 T02240174  RH  073%=      5-min Rain = 0
KTAS 270339Z 16015KT 22/17 A2989 RMK A01 T02240174  RH  073%=      5-min Rain = 0
KTAS 270340Z 16013KT 22/17 A2989 RMK A01 T02240174  RH  073%=      5-min Rain = 0
KTAS 270341Z 17013KT 22/17 A2989 RMK A01 T02240174  RH  073%=      5-min Rain = 0
KTAS 270342Z 16014KT 22/17 A299 RMK A01 T02240174  RH  074%=      5-min Rain = 0
KTAS 270343Z 16013KT 22/17 A299 RMK A01 T02240174  RH  073%=      5-min Rain = 0
KTAS 270344Z 16013KT 22/17 A299 RMK A01 T02240174  RH  073%=      5-min Rain = 0
KTAS 270345Z 16012KT 22/17 A299 RMK A01 T02230174  RH  074%=      5-min Rain = 0
KTAS 270346Z 16014KT 22/17 A299 RMK A01 T02220174  RH  074%=      5-min Rain = 0
KTAS 270347Z 16013KT 22/17 A299 RMK A01 T02220174  RH  074%=      5-min Rain = 0
KTAS 270348Z 16014G19KT 22/17 A2989 RMK A01 T02230174  RH  074%=      5-min Rain = 0
KTAS 270349Z 16013KT 22/17 A2989 RMK A01 T02230174  RH  074%=      5-min Rain = 0
KTAS 270350Z 16014KT 22/17 A2989 RMK A01 T02220174  RH  074%=      5-min Rain = 0
KTAS 270351Z 16015KT 22/17 A2989 RMK A01 T02220174  RH  074%=      5-min Rain = 0
KTAS 270352Z 16016KT 22/17 A2989 RMK A01 T02230174  RH  074%=      5-min Rain = 0
KTAS 270353Z 16014KT 22/17 A2989 RMK A01 T02230174  RH  074%=      5-min Rain = 0
KTAS 270354Z 16014KT 22/17 A2989 RMK A01 T02230174  RH  074%=      5-min Rain = 0
KTAS 270355Z 16014KT 22/17 A2989 RMK A01 T02230174  RH  074%=      5-min Rain = 0
KTAS 270356Z 15015KT 22/17 A2989 RMK A01 T02230174  RH  074%=      5-min Rain = 0
KTAS 270357Z 16015KT 22/17 A2989 RMK A01 T02230174  RH  074%=      5-min Rain = 0
KTAS 270358Z 16015KT 22/17 A2989 RMK A01 T02220174  RH  074%=      5-min Rain = 0
KTAS 270359Z 16013KT 22/17 A2989 RMK A01 T02220174  RH  074%=      5-min Rain = 0
KTAS 270400Z 16014KT 22/17 A2989 RMK A01 T02220174  RH  074%=      5-min Rain = 0
KTAS 270401Z 16015G20KT 22/17 A2989 RMK A01 T02220174  RH  074%=      5-min Rain = 0
KTAS 270402Z 16013KT 22/17 A2989 RMK A01 T02230174  RH  074%=      5-min Rain = 0
KTAS 270403Z 16014KT 22/17 A2989 RMK A01 T02220174  RH  074%=      5-min Rain = 0
KTAS 270404Z 16013KT 22/17 A2989 RMK A01 T02220174  RH  074%=      5-min Rain = 0
KTAS 270405Z 16013KT 22/17 A2989 RMK A01 T02220174  RH  074%=      5-min Rain = 0
KTAS 270406Z 16014KT 22/17 A2989 RMK A01 T02210174  RH  075%=      5-min Rain = 0
KTAS 270407Z 16012KT 22/17 A2989 RMK A01 T02210174  RH  075%=      5-min Rain = 0
KTAS 270408Z 16013KT 22/17 A2989 RMK A01 T02200174  RH  075%=      5-min Rain = 0
KTAS 270409Z 16012KT 22/17 A2989 RMK A01 T02200174  RH  075%=      5-min Rain = 0
KTAS 270410Z 16013KT 22/17 A2989 RMK A01 T02190174  RH  075%=      5-min Rain = 0
KTAS 270411Z 16014KT 22/17 A2988 RMK A01 T02190173  RH  075%=      5-min Rain = 0
KTAS 270412Z 16013KT 22/17 A2988 RMK A01 T02190174  RH  075%=      5-min Rain = 0
KTAS 270413Z 16014G19KT 22/17 A2988 RMK A01 T02190174  RH  076%=      5-min Rain = 0
KTAS 270414Z 16012G20KT 22/17 A2988 RMK A01 T02190174  RH  076%=      5-min Rain = 0
KTAS 270415Z 16015KT 22/17 A2988 RMK A01 T02190174  RH  075%=      5-min Rain = 0
KTAS 270416Z 16015KT 22/17 A2988 RMK A01 T02200174  RH  075%=      5-min Rain = 0
KTAS 270417Z 16015KT 22/17 A2988 RMK A01 T02200174  RH  075%=      5-min Rain = 0
KTAS 270418Z 16014KT 22/17 A2988 RMK A01 T02200174  RH  075%=      5-min Rain = 0
KTAS 270419Z 16013KT 22/17 A2988 RMK A01 T02200174  RH  075%=      5-min Rain = 0
KTAS 270420Z 16013KT 22/17 A2988 RMK A01 T02190174  RH  075%=      5-min Rain = 0
KTAS 270421Z 16013KT 22/17 A2988 RMK A01 T02190174  RH  075%=      5-min Rain = 0
KTAS 270422Z 16012KT 22/17 A2988 RMK A01 T02190174  RH  076%=      5-min Rain = 0
KTAS 270423Z 16013KT 22/17 A2988 RMK A01 T02180174  RH  076%=      5-min Rain = 0
KTAS 270424Z 16014KT 22/17 A2988 RMK A01 T02170174  RH  076%=      5-min Rain = 0
KTAS 270425Z 16014KT 22/17 A2988 RMK A01 T02170174  RH  076%=      5-min Rain = 0
KTAS 270426Z 16014KT 22/17 A2988 RMK A01 T02170174  RH  076%=      5-min Rain = 0
KTAS 270427Z 16015KT 22/17 A2988 RMK A01 T02170174  RH  076%=      5-min Rain = 0
KTAS 270428Z 16015KT 22/17 A2988 RMK A01 T02180174  RH  076%=      5-min Rain = 0
KTAS 270429Z 16013KT 22/17 A2988 RMK A01 T02180174  RH  076%=      5-min Rain = 0
KTAS 270430Z 16012KT 22/17 A2988 RMK A01 T02180174  RH  076%=      5-min Rain = 0
KTAS 270431Z 16013KT 22/17 A2988 RMK A01 T02180174  RH  076%=      5-min Rain = 0
KTAS 270432Z 16011KT 22/17 A2989 RMK A01 T02170174  RH  076%=      5-min Rain = 0
KTAS 270433Z 16012KT 22/17 A2989 RMK A01 T02160174  RH  077%=      5-min Rain = 0
KTAS 270434Z 16013KT 22/17 A2989 RMK A01 T02160174  RH  077%=      5-min Rain = 0
KTAS 270435Z 16012KT 22/17 A2989 RMK A01 T02160174  RH  077%=      5-min Rain = 0
KTAS 270436Z 16014KT 22/17 A2988 RMK A01 T02160173  RH  077%=      5-min Rain = 0
KTAS 270437Z 16011KT 22/17 A2988 RMK A01 T02160173  RH  077%=      5-min Rain = 0
KTAS 270438Z 16012KT 22/17 A2989 RMK A01 T02160174  RH  077%=      5-min Rain = 0
KTAS 270439Z 16014KT 22/17 A2988 RMK A01 T02160174  RH  077%=      5-min Rain = 0
KTAS 270440Z 16014KT 22/17 A2988 RMK A01 T02170173  RH  076%=      5-min Rain = 0
KTAS 270441Z 16012KT 22/17 A2988 RMK A01 T02170173  RH  076%=      5-min Rain = 0
KTAS 270442Z 16014KT 22/17 A2988 RMK A01 T02160173  RH  076%=      5-min Rain = 0
KTAS 270443Z 16013KT 22/17 A2988 RMK A01 T02170174  RH  076%=      5-min Rain = 0
KTAS 270444Z 16014KT 22/17 A2988 RMK A01 T02170174  RH  076%=      5-min Rain = 0
KTAS 270445Z 16013G19KT 22/17 A2988 RMK A01 T02170173  RH  076%=      5-min Rain = 0
KTAS 270446Z 16012KT 22/17 A2988 RMK A01 T02160173  RH  076%=      5-min Rain = 0
KTAS 270447Z 16012KT 22/17 A2988 RMK A01 T02160173  RH  077%=      5-min Rain = 0
KTAS 270448Z 16012KT 22/17 A2988 RMK A01 T02150173  RH  077%=      5-min Rain = 0
KTAS 270449Z 16014KT 22/17 A2988 RMK A01 T02150173  RH  077%=      5-min Rain = 0
KTAS 270450Z 16012KT 22/17 A2988 RMK A01 T02160173  RH  076%=      5-min Rain = 0
KTAS 270451Z 16014KT 22/17 A2988 RMK A01 T02160173  RH  076%=      5-min Rain = 0
KTAS 270452Z 16013KT 22/17 A2988 RMK A01 T02160173  RH  076%=      5-min Rain = 0
KTAS 270453Z 16012KT 22/17 A2988 RMK A01 T02160173  RH  076%=      5-min Rain = 0
KTAS 270454Z 16012KT 22/17 A2988 RMK A01 T02160173  RH  076%=      5-min Rain = 0
KTAS 270455Z 16013KT 22/17 A2988 RMK A01 T02160173  RH  077%=      5-min Rain = 0
KTAS 270456Z 17012KT 22/17 A2988 RMK A01 T02160173  RH  077%=      5-min Rain = 0
KTAS 270457Z 17011KT 22/17 A2988 RMK A01 T02160173  RH  077%=      5-min Rain = 0
KTAS 270458Z 17011KT 22/17 A2988 RMK A01 T02150173  RH  077%=      5-min Rain = 0
KTAS 270459Z 17011KT 22/17 A2988 RMK A01 T02150173  RH  077%=      5-min Rain = 0

Page generated in 0.1274 seconds.